Time,TemperatureF,DewpointF,PressureIn,WindDirection,WindDirectionDegrees,WindSpeedMPH,WindSpeedGustMPH,Humidity,HourlyPrecipIn,Conditions,Clouds,dailyrainin,SoftwareType,DateUTC
2013-04-10 00:00:00,44.5,42.3,29.95,NW,322,0.0,0.0,92,0.00,,,0.00,VWS V14.01,2013-04-10 04:00:00,
2013-04-10 00:05:00,44.4,42.2,29.95,NW,322,0.0,0.0,92,0.00,,,0.00,VWS V14.01,2013-04-10 04:05:00,
2013-04-10 00:10:00,44.4,42.2,29.95,NW,322,0.0,0.0,92,0.00,,,0.00,VWS V14.01,2013-04-10 04:10:00,
2013-04-10 00:15:00,44.4,42.2,29.96,NW,322,0.0,0.0,92,0.00,,,0.00,VWS V14.01,2013-04-10 04:15:00,
2013-04-10 00:20:00,44.4,42.2,29.96,NW,322,0.0,0.0,92,0.00,,,0.00,VWS V14.01,2013-04-10 04:20:00,
2013-04-10 00:25:00,44.5,42.3,29.97,NW,322,0.0,0.0,92,0.00,,,0.00,VWS V14.01,2013-04-10 04:25:00,
2013-04-10 00:30:00,44.6,42.4,29.98,NW,322,0.0,0.0,92,0.00,,,0.00,VWS V14.01,2013-04-10 04:30:00,
2013-04-10 00:35:00,44.5,42.3,29.98,NW,322,0.0,0.0,92,0.00,,,0.00,VWS V14.01,2013-04-10 04:35:00,
2013-04-10 00:36:00,44.4,42.2,29.98,NW,322,0.0,0.0,92,0.00,,,0.00,VWS V14.01,2013-04-10 04:36:00,
2013-04-10 00:37:00,44.4,42.2,29.98,NW,322,0.0,0.0,92,0.00,,,0.00,VWS V14.01,2013-04-10 04:37:00,
2013-04-10 00:40:00,44.4,42.5,29.98,NW,322,0.0,0.0,93,0.00,,,0.00,VWS V14.01,2013-04-10 04:40:00,
2013-04-10 00:41:00,44.4,42.5,29.98,NW,322,0.0,0.0,93,0.00,,,0.00,VWS V14.01,2013-04-10 04:41:00,
2013-04-10 00:42:00,44.4,42.5,29.98,NW,322,0.0,0.0,93,0.00,,,0.00,VWS V14.01,2013-04-10 04:42:00,
2013-04-10 00:45:00,44.4,42.5,29.98,NW,322,0.0,0.0,93,0.00,,,0.00,VWS V14.01,2013-04-10 04:45:00,
2013-04-10 00:46:00,44.3,42.4,29.97,NW,322,0.0,0.0,93,0.00,,,0.00,VWS V14.01,2013-04-10 04:46:00,
2013-04-10 00:47:00,44.3,42.4,29.97,NW,322,0.0,0.0,93,0.00,,,0.00,VWS V14.01,2013-04-10 04:47:00,
2013-04-10 00:50:00,44.3,42.4,29.97,NW,322,0.0,0.0,93,0.00,,,0.00,VWS V14.01,2013-04-10 04:50:00,
2013-04-10 00:51:00,44.3,42.4,29.97,NW,322,0.0,0.0,93,0.00,,,0.00,VWS V14.01,2013-04-10 04:51:00,
2013-04-10 00:52:00,44.3,42.4,29.97,NW,322,0.0,0.0,93,0.00,,,0.00,VWS V14.01,2013-04-10 04:52:00,
2013-04-10 00:55:00,44.2,42.3,29.97,NW,322,0.0,0.0,93,0.00,,,0.00,VWS V14.01,2013-04-10 04:55:00,
2013-04-10 00:56:00,44.2,42.3,29.97,NW,322,0.0,0.0,93,0.00,,,0.00,VWS V14.01,2013-04-10 04:56:00,
2013-04-10 00:57:00,44.2,42.3,29.97,NW,322,0.0,0.0,93,0.00,,,0.00,VWS V14.01,2013-04-10 04:57:00,
2013-04-10 01:00:00,44.2,42.3,29.97,NW,322,0.0,0.0,93,0.00,,,0.00,VWS V14.01,2013-04-10 05:00:00,
2013-04-10 01:01:00,44.2,42.3,29.97,NW,322,0.0,0.0,93,0.00,,,0.00,VWS V14.01,2013-04-10 05:01:00,
2013-04-10 01:02:00,44.2,42.3,29.97,NW,322,0.0,0.0,93,0.00,,,0.00,VWS V14.01,2013-04-10 05:02:00,
2013-04-10 01:05:00,44.2,42.3,29.97,NW,322,2.0,2.0,93,0.00,,,0.00,VWS V14.01,2013-04-10 05:05:00,
2013-04-10 01:06:00,44.3,42.4,29.97,NW,322,0.0,2.0,93,0.00,,,0.00,VWS V14.01,2013-04-10 05:06:00,
2013-04-10 01:07:00,44.3,42.4,29.97,NW,322,0.0,2.0,93,0.00,,,0.00,VWS V14.01,2013-04-10 05:07:00,
2013-04-10 01:10:00,44.3,42.4,29.97,NW,322,0.0,2.0,93,0.00,,,0.00,VWS V14.01,2013-04-10 05:10:00,
2013-04-10 01:11:00,44.2,42.3,29.98,NW,322,0.0,0.0,93,0.00,,,0.00,VWS V14.01,2013-04-10 05:11:00,
2013-04-10 01:12:00,44.2,42.3,29.98,NW,322,0.0,0.0,93,0.00,,,0.00,VWS V14.01,2013-04-10 05:12:00,
2013-04-10 01:15:00,44.2,42.3,29.98,NW,322,0.0,0.0,93,0.00,,,0.00,VWS V14.01,2013-04-10 05:15:00,
2013-04-10 01:16:00,44.2,42.3,29.98,NW,322,0.0,0.0,93,0.00,,,0.00,VWS V14.01,2013-04-10 05:16:00,
2013-04-10 01:17:00,44.1,42.2,29.98,NW,322,0.0,0.0,93,0.00,,,0.00,VWS V14.01,2013-04-10 05:17:00,
2013-04-10 01:18:00,44.1,42.2,29.98,NW,322,0.0,0.0,93,0.00,,,0.00,VWS V14.01,2013-04-10 05:18:00,
2013-04-10 01:20:00,44.1,42.2,29.98,NW,322,0.0,0.0,93,0.00,,,0.00,VWS V14.01,2013-04-10 05:20:00,
2013-04-10 01:22:00,44.1,42.2,29.98,NW,322,0.0,0.0,93,0.00,,,0.00,VWS V14.01,2013-04-10 05:22:00,
2013-04-10 01:23:00,44.1,42.2,29.98,NW,322,0.0,0.0,93,0.00,,,0.00,VWS V14.01,2013-04-10 05:23:00,
2013-04-10 01:25:00,44.0,42.1,29.98,NW,322,0.0,0.0,93,0.00,,,0.00,VWS V14.01,2013-04-10 05:25:00,
2013-04-10 01:27:00,44.0,42.1,29.97,NW,322,0.0,0.0,93,0.00,,,0.00,VWS V14.01,2013-04-10 05:27:00,
2013-04-10 01:28:00,44.0,42.1,29.97,NW,322,0.0,0.0,93,0.00,,,0.00,VWS V14.01,2013-04-10 05:28:00,
2013-04-10 01:30:00,44.0,42.1,29.97,NW,322,0.0,0.0,93,0.00,,,0.00,VWS V14.01,2013-04-10 05:30:00,
2013-04-10 01:33:00,44.0,42.1,29.97,NW,322,0.0,0.0,93,0.00,,,0.00,VWS V14.01,2013-04-10 05:33:00,
2013-04-10 01:35:00,44.0,42.1,29.97,NW,322,0.0,0.0,93,0.00,,,0.00,VWS V14.01,2013-04-10 05:35:00,
2013-04-10 01:38:00,44.2,42.3,29.98,NW,322,1.0,2.0,93,0.00,,,0.00,VWS V14.01,2013-04-10 05:38:00,
2013-04-10 01:40:00,44.2,42.3,29.98,NW,322,1.0,2.0,93,0.00,,,0.00,VWS V14.01,2013-04-10 05:40:00,
2013-04-10 01:43:00,44.2,42.3,29.98,NW,322,0.0,1.0,93,0.00,,,0.00,VWS V14.01,2013-04-10 05:43:00,
2013-04-10 01:45:00,44.2,42.3,29.98,NW,322,0.0,1.0,93,0.00,,,0.00,VWS V14.01,2013-04-10 05:45:00,
2013-04-10 01:48:00,44.2,42.3,29.97,NW,322,0.0,0.0,93,0.00,,,0.00,VWS V14.01,2013-04-10 05:48:00,
2013-04-10 01:49:00,44.2,42.3,29.97,NW,322,0.0,0.0,93,0.00,,,0.00,VWS V14.01,2013-04-10 05:49:00,
2013-04-10 01:50:00,44.2,42.3,29.97,NW,322,0.0,0.0,93,0.00,,,0.00,VWS V14.01,2013-04-10 05:50:00,
2013-04-10 01:53:00,44.2,42.3,29.98,NW,322,0.0,1.0,93,0.00,,,0.00,VWS V14.01,2013-04-10 05:53:00,
2013-04-10 01:54:00,44.2,42.3,29.98,NW,322,2.0,2.0,93,0.00,,,0.00,VWS V14.01,2013-04-10 05:54:00,
2013-04-10 01:55:00,44.2,42.3,29.98,NW,322,0.0,2.0,93,0.00,,,0.00,VWS V14.01,2013-04-10 05:55:00,
2013-04-10 01:58:00,44.2,42.3,29.99,NW,325,1.0,2.0,93,0.00,,,0.00,VWS V14.01,2013-04-10 05:58:00,
2013-04-10 01:59:00,44.2,42.3,29.99,NW,325,1.0,2.0,93,0.00,,,0.00,VWS V14.01,2013-04-10 05:59:00,
2013-04-10 02:00:00,44.2,42.3,29.99,NW,325,2.0,2.0,93,0.00,,,0.00,VWS V14.01,2013-04-10 06:00:00,
2013-04-10 02:03:00,44.1,42.2,29.99,NNW,339,2.0,4.0,93,0.00,,,0.00,VWS V14.01,2013-04-10 06:03:00,
2013-04-10 02:04:00,44.1,42.2,29.98,NNW,339,1.0,4.0,93,0.00,,,0.00,VWS V14.01,2013-04-10 06:04:00,
2013-04-10 02:05:00,44.1,42.2,29.98,NNW,338,0.0,4.0,93,0.00,,,0.00,VWS V14.01,2013-04-10 06:05:00,
2013-04-10 02:08:00,44.0,42.4,29.98,NNW,338,0.0,0.0,94,0.00,,,0.00,VWS V14.01,2013-04-10 06:08:00,
2013-04-10 02:09:00,44.0,42.4,29.98,NNW,339,0.0,0.0,94,0.00,,,0.00,VWS V14.01,2013-04-10 06:09:00,
2013-04-10 02:10:00,44.0,42.4,29.98,NNW,339,0.0,0.0,94,0.00,,,0.00,VWS V14.01,2013-04-10 06:10:00,
2013-04-10 02:13:00,44.0,42.4,29.97,NNW,338,0.0,1.0,94,0.00,,,0.00,VWS V14.01,2013-04-10 06:13:00,
2013-04-10 02:14:00,43.9,42.3,29.97,NNW,338,0.0,1.0,94,0.00,,,0.00,VWS V14.01,2013-04-10 06:14:00,
2013-04-10 02:15:00,43.9,42.3,29.97,NNW,339,0.0,1.0,94,0.00,,,0.00,VWS V14.01,2013-04-10 06:15:00,
2013-04-10 02:19:00,44.0,42.4,29.96,NNW,338,0.0,1.0,94,0.00,,,0.00,VWS V14.01,2013-04-10 06:19:00,
2013-04-10 02:20:00,44.1,42.5,29.96,NNW,338,0.0,1.0,94,0.00,,,0.00,VWS V14.01,2013-04-10 06:20:00,
2013-04-10 02:24:00,44.2,42.6,29.96,NNW,339,2.0,2.0,94,0.00,,,0.00,VWS V14.01,2013-04-10 06:24:00,
2013-04-10 02:25:00,44.3,42.7,29.96,NNW,338,1.0,2.0,94,0.00,,,0.00,VWS V14.01,2013-04-10 06:25:00,
2013-04-10 02:29:00,44.3,42.7,29.97,NNW,339,0.0,2.0,94,0.00,,,0.00,VWS V14.01,2013-04-10 06:29:00,
2013-04-10 02:30:00,44.3,42.7,29.97,NNW,339,0.0,2.0,94,0.00,,,0.00,VWS V14.01,2013-04-10 06:30:00,
2013-04-10 02:34:00,44.2,42.6,29.97,NNW,339,0.0,0.0,94,0.00,,,0.00,VWS V14.01,2013-04-10 06:34:00,
2013-04-10 02:35:00,44.2,42.6,29.97,NNW,339,0.0,0.0,94,0.00,,,0.00,VWS V14.01,2013-04-10 06:35:00,
2013-04-10 02:39:00,44.1,42.5,29.97,NNW,339,0.0,2.0,94,0.00,,,0.00,VWS V14.01,2013-04-10 06:39:00,
2013-04-10 02:40:00,44.1,42.5,29.97,NNW,338,0.0,2.0,94,0.00,,,0.00,VWS V14.01,2013-04-10 06:40:00,
2013-04-10 02:44:00,44.0,42.4,29.96,NNW,339,0.0,0.0,94,0.00,,,0.00,VWS V14.01,2013-04-10 06:44:00,
2013-04-10 02:45:00,44.0,42.4,29.96,NNW,338,0.0,0.0,94,0.00,,,0.00,VWS V14.01,2013-04-10 06:45:00,
2013-04-10 02:49:00,44.1,42.5,29.97,NNW,339,0.0,0.0,94,0.00,,,0.00,VWS V14.01,2013-04-10 06:49:00,
2013-04-10 02:50:00,44.1,42.5,29.97,NNW,339,0.0,0.0,94,0.00,,,0.00,VWS V14.01,2013-04-10 06:50:00,
2013-04-10 02:54:00,44.1,42.5,29.96,NNW,339,0.0,0.0,94,0.00,,,0.00,VWS V14.01,2013-04-10 06:54:00,
2013-04-10 02:55:00,44.1,42.5,29.96,NNW,339,0.0,0.0,94,0.00,,,0.00,VWS V14.01,2013-04-10 06:55:00,
2013-04-10 02:59:00,44.1,42.5,29.96,NNW,338,0.0,0.0,94,0.00,,,0.00,VWS V14.01,2013-04-10 06:59:00,
2013-04-10 03:00:00,44.1,42.5,29.96,NNW,338,0.0,0.0,94,0.00,,,0.00,VWS V14.01,2013-04-10 07:00:00,
2013-04-10 03:04:00,44.1,42.5,29.95,NNW,339,0.0,0.0,94,0.00,,,0.00,VWS V14.01,2013-04-10 07:04:00,
2013-04-10 03:05:00,44.1,42.5,29.95,NNW,339,0.0,0.0,94,0.00,,,0.00,VWS V14.01,2013-04-10 07:05:00,
2013-04-10 03:09:00,44.0,42.4,29.95,NNW,339,0.0,0.0,94,0.00,,,0.00,VWS V14.01,2013-04-10 07:09:00,
2013-04-10 03:10:00,44.1,42.5,29.95,NNW,338,0.0,0.0,94,0.00,,,0.00,VWS V14.01,2013-04-10 07:10:00,
2013-04-10 03:15:00,44.0,42.4,29.95,NNW,339,0.0,0.0,94,0.00,,,0.00,VWS V14.01,2013-04-10 07:15:00,
2013-04-10 03:20:00,44.0,42.4,29.94,NNW,338,0.0,0.0,94,0.00,,,0.00,VWS V14.01,2013-04-10 07:20:00,
2013-04-10 03:25:00,44.1,42.5,29.94,NNW,339,2.0,2.0,94,0.00,,,0.00,VWS V14.01,2013-04-10 07:25:00,
2013-04-10 03:30:00,44.3,42.7,29.94,NNW,338,2.0,3.0,94,0.00,,,0.00,VWS V14.01,2013-04-10 07:30:00,
2013-04-10 03:35:00,44.4,42.8,29.94,NNW,340,3.0,4.0,94,0.00,,,0.00,VWS V14.01,2013-04-10 07:35:00,
2013-04-10 03:40:00,44.5,42.9,29.94,North,355,3.0,4.0,94,0.00,,,0.00,VWS V14.01,2013-04-10 07:40:00,
2013-04-10 03:41:00,44.5,42.9,29.94,North,355,3.0,4.0,94,0.00,,,0.00,VWS V14.01,2013-04-10 07:41:00,
2013-04-10 03:45:00,44.6,43.0,29.94,North,355,1.0,2.0,94,0.00,,,0.00,VWS V14.01,2013-04-10 07:45:00,
2013-04-10 03:46:00,44.6,43.0,29.94,North,355,2.0,2.0,94,0.00,,,0.00,VWS V14.01,2013-04-10 07:46:00,
2013-04-10 03:50:00,44.6,43.0,29.94,North,355,0.0,2.0,94,0.00,,,0.00,VWS V14.01,2013-04-10 07:50:00,
2013-04-10 03:51:00,44.6,43.0,29.94,North,355,0.0,3.0,94,0.00,,,0.00,VWS V14.01,2013-04-10 07:51:00,
2013-04-10 03:52:00,44.5,42.9,29.94,North,355,1.0,3.0,94,0.00,,,0.00,VWS V14.01,2013-04-10 07:52:00,
2013-04-10 03:55:00,44.5,42.9,29.94,North,355,0.0,2.0,94,0.00,,,0.00,VWS V14.01,2013-04-10 07:55:00,
2013-04-10 03:56:00,44.5,42.9,29.94,North,355,0.0,2.0,94,0.00,,,0.00,VWS V14.01,2013-04-10 07:56:00,
2013-04-10 03:57:00,44.5,42.9,29.95,North,355,0.0,2.0,94,0.00,,,0.00,VWS V14.01,2013-04-10 07:57:00,
2013-04-10 04:00:00,44.4,42.8,29.95,North,355,0.0,0.0,94,0.00,,,0.00,VWS V14.01,2013-04-10 08:00:00,
2013-04-10 04:01:00,44.3,42.7,29.95,North,355,0.0,0.0,94,0.00,,,0.00,VWS V14.01,2013-04-10 08:01:00,
2013-04-10 04:02:00,44.3,42.7,29.95,North,355,0.0,0.0,94,0.00,,,0.00,VWS V14.01,2013-04-10 08:02:00,
2013-04-10 04:05:00,44.2,42.6,29.95,North,355,0.0,0.0,94,0.00,,,0.00,VWS V14.01,2013-04-10 08:05:00,
2013-04-10 04:07:00,44.2,42.6,29.95,North,355,0.0,0.0,94,0.00,,,0.00,VWS V14.01,2013-04-10 08:07:00,
2013-04-10 04:10:00,44.2,42.6,29.95,North,355,0.0,1.0,94,0.00,,,0.00,VWS V14.01,2013-04-10 08:10:00,
2013-04-10 04:12:00,44.2,42.6,29.95,North,355,0.0,1.0,94,0.00,,,0.00,VWS V14.01,2013-04-10 08:12:00,
2013-04-10 04:15:00,44.1,42.5,29.95,North,355,0.0,0.0,94,0.00,,,0.00,VWS V14.01,2013-04-10 08:15:00,
2013-04-10 04:17:00,44.2,42.6,29.95,North,355,0.0,0.0,94,0.00,,,0.00,VWS V14.01,2013-04-10 08:17:00,
2013-04-10 04:20:00,44.0,42.4,29.95,North,355,0.0,0.0,94,0.00,,,0.00,VWS V14.01,2013-04-10 08:20:00,
2013-04-10 04:22:00,44.0,42.4,29.95,North,355,0.0,0.0,94,0.00,,,0.00,VWS V14.01,2013-04-10 08:22:00,
2013-04-10 04:25:00,44.0,42.4,29.95,North,355,0.0,0.0,94,0.00,,,0.00,VWS V14.01,2013-04-10 08:25:00,
2013-04-10 04:27:00,44.1,42.5,29.95,North,355,0.0,0.0,94,0.00,,,0.00,VWS V14.01,2013-04-10 08:27:00,
2013-04-10 04:28:00,44.0,42.4,29.95,North,355,0.0,0.0,94,0.00,,,0.00,VWS V14.01,2013-04-10 08:28:00,
2013-04-10 04:30:00,44.0,42.4,29.95,North,355,0.0,0.0,94,0.00,,,0.00,VWS V14.01,2013-04-10 08:30:00,
2013-04-10 04:31:00,44.0,42.4,29.95,North,355,0.0,0.0,94,0.00,,,0.00,VWS V14.01,2013-04-10 08:31:00,
2013-04-10 04:32:00,44.0,42.4,29.95,North,355,0.0,0.0,94,0.00,,,0.00,VWS V14.01,2013-04-10 08:32:00,
2013-04-10 04:33:00,44.0,42.4,29.95,North,355,0.0,0.0,94,0.00,,,0.00,VWS V14.01,2013-04-10 08:33:00,
2013-04-10 04:35:00,44.0,42.4,29.95,North,355,0.0,0.0,94,0.00,,,0.00,VWS V14.01,2013-04-10 08:35:00,
2013-04-10 04:36:00,44.0,42.4,29.95,North,355,0.0,0.0,94,0.00,,,0.00,VWS V14.01,2013-04-10 08:36:00,
2013-04-10 04:37:00,44.0,42.4,29.95,North,355,0.0,0.0,94,0.00,,,0.00,VWS V14.01,2013-04-10 08:37:00,
2013-04-10 04:38:00,44.0,42.4,29.95,North,355,0.0,0.0,94,0.00,,,0.00,VWS V14.01,2013-04-10 08:38:00,
2013-04-10 04:40:00,44.0,42.4,29.95,North,355,0.0,0.0,94,0.00,,,0.00,VWS V14.01,2013-04-10 08:40:00,
2013-04-10 04:41:00,44.0,42.4,29.95,North,355,0.0,0.0,94,0.00,,,0.00,VWS V14.01,2013-04-10 08:41:00,
2013-04-10 04:42:00,44.0,42.4,29.95,North,355,0.0,0.0,94,0.00,,,0.00,VWS V14.01,2013-04-10 08:42:00,
2013-04-10 04:43:00,44.0,42.4,29.95,North,355,0.0,0.0,94,0.00,,,0.00,VWS V14.01,2013-04-10 08:43:00,
2013-04-10 04:45:00,44.0,42.4,29.95,North,355,0.0,0.0,94,0.00,,,0.00,VWS V14.01,2013-04-10 08:45:00,
2013-04-10 04:46:00,44.0,42.4,29.95,North,355,0.0,0.0,94,0.00,,,0.00,VWS V14.01,2013-04-10 08:46:00,
2013-04-10 04:47:00,44.0,42.4,29.95,North,355,0.0,0.0,94,0.00,,,0.00,VWS V14.01,2013-04-10 08:47:00,
2013-04-10 04:48:00,44.0,42.4,29.95,North,355,0.0,0.0,94,0.00,,,0.00,VWS V14.01,2013-04-10 08:48:00,
2013-04-10 04:50:00,44.0,42.4,29.95,North,355,0.0,0.0,94,0.00,,,0.00,VWS V14.01,2013-04-10 08:50:00,
2013-04-10 04:52:00,44.0,42.4,29.94,North,355,0.0,1.0,94,0.00,,,0.00,VWS V14.01,2013-04-10 08:52:00,
2013-04-10 04:53:00,44.0,42.4,29.94,North,355,0.0,1.0,94,0.00,,,0.00,VWS V14.01,2013-04-10 08:53:00,
2013-04-10 04:55:00,44.0,42.4,29.94,North,355,0.0,1.0,94,0.00,,,0.00,VWS V14.01,2013-04-10 08:55:00,
2013-04-10 04:57:00,44.1,42.5,29.95,North,355,0.0,0.0,94,0.00,,,0.00,VWS V14.01,2013-04-10 08:57:00,
2013-04-10 04:58:00,44.1,42.5,29.95,North,355,0.0,0.0,94,0.00,,,0.00,VWS V14.01,2013-04-10 08:58:00,
2013-04-10 05:00:00,44.0,42.4,29.94,North,355,0.0,1.0,94,0.00,,,0.00,VWS V14.01,2013-04-10 09:00:00,
2013-04-10 05:02:00,44.1,42.5,29.94,North,355,0.0,1.0,94,0.00,,,0.00,VWS V14.01,2013-04-10 09:02:00,
2013-04-10 05:03:00,44.1,42.5,29.94,North,355,0.0,1.0,94,0.00,,,0.00,VWS V14.01,2013-04-10 09:03:00,
2013-04-10 05:05:00,44.1,42.5,29.94,North,355,0.0,1.0,94,0.00,,,0.00,VWS V14.01,2013-04-10 09:05:00,
2013-04-10 05:07:00,44.1,42.5,29.94,North,355,0.0,0.0,94,0.00,,,0.00,VWS V14.01,2013-04-10 09:07:00,
2013-04-10 05:08:00,44.1,42.5,29.94,North,355,0.0,0.0,94,0.00,,,0.00,VWS V14.01,2013-04-10 09:08:00,
2013-04-10 05:10:00,44.1,42.5,29.94,North,355,0.0,0.0,94,0.00,,,0.00,VWS V14.01,2013-04-10 09:10:00,
2013-04-10 05:12:00,44.1,42.5,29.94,North,355,0.0,0.0,94,0.00,,,0.00,VWS V14.01,2013-04-10 09:12:00,
2013-04-10 05:13:00,44.1,42.5,29.94,North,355,0.0,0.0,94,0.00,,,0.00,VWS V14.01,2013-04-10 09:13:00,
2013-04-10 05:15:00,44.1,42.5,29.94,North,355,0.0,1.0,94,0.00,,,0.00,VWS V14.01,2013-04-10 09:15:00,
2013-04-10 05:17:00,44.1,42.5,29.93,North,355,0.0,1.0,94,0.00,,,0.00,VWS V14.01,2013-04-10 09:17:00,
2013-04-10 05:18:00,44.1,42.5,29.93,North,355,0.0,1.0,94,0.00,,,0.00,VWS V14.01,2013-04-10 09:18:00,
2013-04-10 05:19:00,44.0,42.4,29.93,North,355,0.0,1.0,94,0.00,,,0.00,VWS V14.01,2013-04-10 09:19:00,
2013-04-10 05:20:00,44.1,42.5,29.93,North,355,0.0,1.0,94,0.00,,,0.00,VWS V14.01,2013-04-10 09:20:00,
2013-04-10 05:22:00,44.0,42.4,29.93,North,355,0.0,0.0,94,0.00,,,0.00,VWS V14.01,2013-04-10 09:22:00,
2013-04-10 05:23:00,44.0,42.4,29.93,North,355,0.0,0.0,94,0.00,,,0.00,VWS V14.01,2013-04-10 09:23:00,
2013-04-10 05:24:00,44.0,42.4,29.93,North,355,0.0,0.0,94,0.00,,,0.00,VWS V14.01,2013-04-10 09:24:00,
2013-04-10 05:25:00,44.0,42.4,29.93,North,355,0.0,0.0,94,0.00,,,0.00,VWS V14.01,2013-04-10 09:25:00,
2013-04-10 05:27:00,44.0,42.4,29.94,North,355,0.0,0.0,94,0.00,,,0.00,VWS V14.01,2013-04-10 09:27:00,
2013-04-10 05:28:00,44.0,42.4,29.94,North,355,0.0,0.0,94,0.00,,,0.00,VWS V14.01,2013-04-10 09:28:00,
2013-04-10 05:29:00,44.0,42.4,29.94,North,355,0.0,0.0,94,0.00,,,0.00,VWS V14.01,2013-04-10 09:29:00,
2013-04-10 05:30:00,44.0,42.4,29.94,North,355,0.0,0.0,94,0.00,,,0.00,VWS V14.01,2013-04-10 09:30:00,
2013-04-10 05:32:00,44.0,42.4,29.94,North,355,0.0,2.0,94,0.00,,,0.00,VWS V14.01,2013-04-10 09:32:00,
2013-04-10 05:33:00,44.0,42.4,29.94,North,355,0.0,2.0,94,0.00,,,0.00,VWS V14.01,2013-04-10 09:33:00,
2013-04-10 05:34:00,44.0,42.4,29.94,North,355,0.0,2.0,94,0.00,,,0.00,VWS V14.01,2013-04-10 09:34:00,
2013-04-10 05:35:00,44.0,42.4,29.94,North,355,0.0,2.0,94,0.00,,,0.00,VWS V14.01,2013-04-10 09:35:00,
2013-04-10 05:38:00,44.0,42.4,29.94,NNW,348,0.0,3.0,94,0.00,,,0.00,VWS V14.01,2013-04-10 09:38:00,
2013-04-10 05:39:00,44.0,42.4,29.94,NNW,348,0.0,3.0,94,0.00,,,0.00,VWS V14.01,2013-04-10 09:39:00,
2013-04-10 05:40:00,44.0,42.4,29.94,NNW,348,0.0,3.0,94,0.00,,,0.00,VWS V14.01,2013-04-10 09:40:00,
2013-04-10 05:43:00,43.9,42.3,29.95,NNW,348,0.0,2.0,94,0.00,,,0.00,VWS V14.01,2013-04-10 09:43:00,
2013-04-10 05:44:00,43.9,42.3,29.95,NNW,348,1.0,2.0,94,0.00,,,0.00,VWS V14.01,2013-04-10 09:44:00,
2013-04-10 05:45:00,43.9,42.3,29.95,NNW,346,2.0,3.0,94,0.00,,,0.00,VWS V14.01,2013-04-10 09:45:00,
2013-04-10 05:48:00,43.9,42.3,29.95,SW,230,2.0,4.0,94,0.00,,,0.00,VWS V14.01,2013-04-10 09:48:00,
2013-04-10 05:49:00,43.9,42.3,29.95,SW,230,0.0,4.0,94,0.00,,,0.00,VWS V14.01,2013-04-10 09:49:00,
2013-04-10 05:50:00,43.9,42.3,29.95,SW,233,3.0,4.0,94,0.00,,,0.00,VWS V14.01,2013-04-10 09:50:00,
2013-04-10 05:53:00,43.9,42.3,29.96,SW,232,2.0,4.0,94,0.00,,,0.00,VWS V14.01,2013-04-10 09:53:00,
2013-04-10 05:54:00,43.9,42.3,29.96,SW,232,2.0,4.0,94,0.00,,,0.00,VWS V14.01,2013-04-10 09:54:00,
2013-04-10 05:55:00,43.9,42.3,29.96,SW,232,3.0,4.0,94,0.00,,,0.00,VWS V14.01,2013-04-10 09:55:00,
2013-04-10 05:58:00,43.9,42.3,29.95,SW,232,0.0,4.0,94,0.00,,,0.00,VWS V14.01,2013-04-10 09:58:00,
2013-04-10 05:59:00,43.9,42.3,29.95,SW,232,0.0,4.0,94,0.00,,,0.00,VWS V14.01,2013-04-10 09:59:00,
2013-04-10 06:00:00,43.9,42.3,29.95,SW,232,2.0,4.0,94,0.00,,,0.00,VWS V14.01,2013-04-10 10:00:00,
2013-04-10 06:03:00,43.9,42.3,29.96,SW,232,0.0,3.0,94,0.00,,,0.00,VWS V14.01,2013-04-10 10:03:00,
2013-04-10 06:04:00,43.9,42.3,29.96,SW,232,0.0,3.0,94,0.00,,,0.00,VWS V14.01,2013-04-10 10:04:00,
2013-04-10 06:05:00,43.8,42.2,29.96,SW,232,0.0,3.0,94,0.00,,,0.00,VWS V14.01,2013-04-10 10:05:00,
2013-04-10 06:09:00,43.9,42.3,29.96,SW,232,0.0,2.0,94,0.00,,,0.00,VWS V14.01,2013-04-10 10:09:00,
2013-04-10 06:10:00,43.9,42.3,29.96,SW,232,0.0,2.0,94,0.00,,,0.00,VWS V14.01,2013-04-10 10:10:00,
2013-04-10 06:14:00,43.9,42.3,29.96,SW,232,0.0,0.0,94,0.00,,,0.00,VWS V14.01,2013-04-10 10:14:00,
2013-04-10 06:15:00,43.9,42.3,29.96,SW,232,0.0,0.0,94,0.00,,,0.00,VWS V14.01,2013-04-10 10:15:00,
2013-04-10 06:19:00,43.9,42.3,29.96,SW,232,0.0,2.0,94,0.00,,,0.00,VWS V14.01,2013-04-10 10:19:00,
2013-04-10 06:20:00,43.9,42.3,29.96,SW,232,0.0,2.0,94,0.00,,,0.00,VWS V14.01,2013-04-10 10:20:00,
2013-04-10 06:24:00,43.9,42.3,29.96,SW,232,0.0,0.0,94,0.00,,,0.00,VWS V14.01,2013-04-10 10:24:00,
2013-04-10 06:25:00,43.9,42.3,29.96,SW,232,0.0,0.0,94,0.00,,,0.00,VWS V14.01,2013-04-10 10:25:00,
2013-04-10 06:29:00,43.9,42.3,29.96,SW,232,2.0,2.0,94,0.00,,,0.00,VWS V14.01,2013-04-10 10:29:00,
2013-04-10 06:30:00,43.9,42.3,29.96,SW,232,1.0,2.0,94,0.00,,,0.00,VWS V14.01,2013-04-10 10:30:00,
2013-04-10 06:34:00,43.9,42.3,29.97,SW,232,0.0,2.0,94,0.00,,,0.00,VWS V14.01,2013-04-10 10:34:00,
2013-04-10 06:35:00,43.9,42.3,29.96,SW,232,0.0,0.0,94,0.00,,,0.00,VWS V14.01,2013-04-10 10:35:00,
2013-04-10 06:39:00,43.9,42.3,29.97,SSW,196,0.0,0.0,94,0.00,,,0.00,VWS V14.01,2013-04-10 10:39:00,
2013-04-10 06:40:00,43.9,42.3,29.97,SSW,196,0.0,0.0,94,0.00,,,0.00,VWS V14.01,2013-04-10 10:40:00,
2013-04-10 06:44:00,43.9,42.3,29.97,North,360,0.0,0.0,94,0.00,,,0.00,VWS V14.01,2013-04-10 10:44:00,
2013-04-10 06:45:00,43.9,42.3,29.97,North,360,0.0,0.0,94,0.00,,,0.00,VWS V14.01,2013-04-10 10:45:00,
2013-04-10 06:49:00,43.9,42.3,29.97,North,360,0.0,2.0,94,0.00,,,0.00,VWS V14.01,2013-04-10 10:49:00,
2013-04-10 06:50:00,43.9,42.3,29.97,North,5,0.0,0.0,94,0.00,,,0.00,VWS V14.01,2013-04-10 10:50:00,
2013-04-10 06:54:00,43.9,42.6,29.97,SW,221,0.0,4.0,95,0.00,,,0.00,VWS V14.01,2013-04-10 10:54:00,
2013-04-10 06:55:00,43.9,42.6,29.97,SW,221,3.0,3.0,95,0.00,,,0.00,VWS V14.01,2013-04-10 10:55:00,
2013-04-10 06:59:00,43.9,42.6,29.97,SW,219,2.0,4.0,95,0.00,,,0.00,VWS V14.01,2013-04-10 10:59:00,
2013-04-10 07:00:00,43.9,42.6,29.97,SW,222,4.0,5.0,95,0.00,,,0.00,VWS V14.01,2013-04-10 11:00:00,
2013-04-10 07:01:00,43.9,42.6,29.97,SW,222,0.0,5.0,95,0.00,,,0.00,VWS V14.01,2013-04-10 11:01:00,
2013-04-10 07:04:00,43.9,42.6,29.97,SW,222,0.0,5.0,95,0.00,,,0.00,VWS V14.01,2013-04-10 11:04:00,
2013-04-10 07:05:00,43.9,42.6,29.97,SW,222,0.0,0.0,95,0.00,,,0.00,VWS V14.01,2013-04-10 11:05:00,
2013-04-10 07:06:00,43.9,42.6,29.97,SW,222,2.0,2.0,95,0.00,,,0.00,VWS V14.01,2013-04-10 11:06:00,
2013-04-10 07:09:00,43.9,42.6,29.97,SW,222,0.0,4.0,95,0.00,,,0.00,VWS V14.01,2013-04-10 11:09:00,
2013-04-10 07:10:00,43.9,42.6,29.97,SW,222,0.0,0.0,95,0.00,,,0.00,VWS V14.01,2013-04-10 11:10:00,
2013-04-10 07:11:00,43.9,42.6,29.97,SW,222,0.0,0.0,95,0.00,,,0.00,VWS V14.01,2013-04-10 11:11:00,
2013-04-10 07:14:00,43.9,42.6,29.97,SW,223,0.0,4.0,95,0.00,,,0.00,VWS V14.01,2013-04-10 11:14:00,
2013-04-10 07:15:00,43.9,42.6,29.97,SW,222,0.0,1.0,95,0.00,,,0.00,VWS V14.01,2013-04-10 11:15:00,
2013-04-10 07:17:00,43.9,42.6,29.97,SW,223,0.0,1.0,95,0.00,,,0.00,VWS V14.01,2013-04-10 11:17:00,
2013-04-10 07:19:00,43.9,42.6,29.97,SW,223,0.0,1.0,95,0.00,,,0.00,VWS V14.01,2013-04-10 11:19:00,
2013-04-10 07:20:00,43.9,42.6,29.97,SW,222,0.0,1.0,95,0.00,,,0.00,VWS V14.01,2013-04-10 11:20:00,
2013-04-10 07:22:00,43.9,42.6,29.97,SW,223,0.0,1.0,95,0.00,,,0.00,VWS V14.01,2013-04-10 11:22:00,
2013-04-10 07:24:00,43.9,42.6,29.97,SW,223,1.0,1.0,95,0.00,,,0.00,VWS V14.01,2013-04-10 11:24:00,
2013-04-10 07:25:00,43.9,42.6,29.97,SW,223,0.0,1.0,95,0.00,,,0.00,VWS V14.01,2013-04-10 11:25:00,
2013-04-10 07:27:00,43.9,42.6,29.97,SW,223,0.0,2.0,95,0.00,,,0.00,VWS V14.01,2013-04-10 11:27:00,
2013-04-10 07:30:00,44.0,42.7,29.97,SW,222,2.0,2.0,95,0.00,,,0.00,VWS V14.01,2013-04-10 11:30:00,
2013-04-10 07:32:00,44.0,42.7,29.97,SW,223,0.0,3.0,95,0.00,,,0.00,VWS V14.01,2013-04-10 11:32:00,
2013-04-10 07:35:00,44.0,42.7,29.98,SW,223,0.0,0.0,95,0.00,,,0.00,VWS V14.01,2013-04-10 11:35:00,
2013-04-10 07:36:00,44.0,42.7,29.98,SW,222,0.0,0.0,95,0.00,,,0.00,VWS V14.01,2013-04-10 11:36:00,
2013-04-10 07:37:00,44.0,42.7,29.98,SW,223,0.0,1.0,95,0.00,,,0.00,VWS V14.01,2013-04-10 11:37:00,
2013-04-10 07:40:00,44.0,42.7,29.98,SW,222,0.0,0.0,95,0.00,,,0.00,VWS V14.01,2013-04-10 11:40:00,
2013-04-10 07:42:00,44.0,42.7,29.98,SW,222,0.0,1.0,95,0.00,,,0.00,VWS V14.01,2013-04-10 11:42:00,
2013-04-10 07:45:00,44.0,42.7,29.98,SW,223,1.0,2.0,95,0.00,,,0.00,VWS V14.01,2013-04-10 11:45:00,
2013-04-10 07:47:00,44.0,42.7,29.98,SW,223,0.0,2.0,95,0.00,,,0.00,VWS V14.01,2013-04-10 11:47:00,
2013-04-10 07:50:00,44.0,42.7,29.98,SW,223,0.0,1.0,95,0.00,,,0.00,VWS V14.01,2013-04-10 11:50:00,
2013-04-10 07:52:00,44.1,42.8,29.98,SW,223,0.0,1.0,95,0.00,,,0.00,VWS V14.01,2013-04-10 11:52:00,
2013-04-10 07:55:00,44.1,42.8,29.98,SW,222,0.0,2.0,95,0.00,,,0.00,VWS V14.01,2013-04-10 11:55:00,
2013-04-10 07:57:00,44.1,42.8,29.98,SW,222,2.0,2.0,95,0.00,,,0.00,VWS V14.01,2013-04-10 11:57:00,
2013-04-10 08:00:00,44.2,42.9,29.98,SW,222,0.0,2.0,95,0.00,,,0.00,VWS V14.01,2013-04-10 12:00:00,
2013-04-10 08:01:00,44.2,42.9,29.98,SW,222,0.0,2.0,95,0.00,,,0.00,VWS V14.01,2013-04-10 12:01:00,
2013-04-10 08:02:00,44.2,42.9,29.98,SW,222,0.0,2.0,95,0.00,,,0.00,VWS V14.01,2013-04-10 12:02:00,
2013-04-10 08:05:00,44.2,42.9,29.98,SW,223,0.0,2.0,95,0.00,,,0.00,VWS V14.01,2013-04-10 12:05:00,
2013-04-10 08:06:00,44.2,42.9,29.99,SW,222,0.0,2.0,95,0.00,,,0.00,VWS V14.01,2013-04-10 12:06:00,
2013-04-10 08:07:00,44.2,42.9,29.99,SW,222,0.0,2.0,95,0.00,,,0.00,VWS V14.01,2013-04-10 12:07:00,
2013-04-10 08:08:00,44.3,43.0,29.99,SW,223,0.0,2.0,95,0.00,,,0.00,VWS V14.01,2013-04-10 12:08:00,
2013-04-10 08:10:00,44.3,43.0,29.99,SW,217,3.0,3.0,95,0.00,,,0.00,VWS V14.01,2013-04-10 12:10:00,
2013-04-10 08:11:00,44.4,43.1,29.99,SW,229,3.0,4.0,95,0.00,,,0.00,VWS V14.01,2013-04-10 12:11:00,
2013-04-10 08:12:00,44.4,43.1,29.99,SW,229,2.0,4.0,95,0.00,,,0.00,VWS V14.01,2013-04-10 12:12:00,
2013-04-10 08:13:00,44.4,43.1,29.99,South,183,1.0,4.0,95,0.00,,,0.00,VWS V14.01,2013-04-10 12:13:00,
2013-04-10 08:15:00,44.4,43.1,29.99,SW,221,2.0,4.0,95,0.00,,,0.00,VWS V14.01,2013-04-10 12:15:00,
2013-04-10 08:16:00,44.4,43.1,29.98,SW,221,0.0,4.0,95,0.00,,,0.00,VWS V14.01,2013-04-10 12:16:00,
2013-04-10 08:17:00,44.4,43.1,29.98,SW,221,0.0,4.0,95,0.00,,,0.00,VWS V14.01,2013-04-10 12:17:00,
2013-04-10 08:18:00,44.4,43.1,29.98,SW,221,0.0,4.0,95,0.00,,,0.00,VWS V14.01,2013-04-10 12:18:00,
2013-04-10 08:20:00,44.4,43.1,29.98,SW,221,0.0,4.0,95,0.00,,,0.00,VWS V14.01,2013-04-10 12:20:00,
2013-04-10 08:21:00,44.4,43.1,29.98,SW,221,0.0,0.0,95,0.00,,,0.00,VWS V14.01,2013-04-10 12:21:00,
2013-04-10 08:22:00,44.4,43.1,29.98,SW,221,0.0,0.0,95,0.00,,,0.00,VWS V14.01,2013-04-10 12:22:00,
2013-04-10 08:23:00,44.5,43.2,29.98,SW,221,0.0,0.0,95,0.00,,,0.00,VWS V14.01,2013-04-10 12:23:00,
2013-04-10 08:25:00,44.5,43.2,29.98,SW,221,0.0,1.0,95,0.00,,,0.00,VWS V14.01,2013-04-10 12:25:00,
2013-04-10 08:26:00,44.6,43.3,29.98,SW,221,2.0,2.0,95,0.00,,,0.00,VWS V14.01,2013-04-10 12:26:00,
2013-04-10 08:27:00,44.6,43.3,29.98,SW,221,0.0,3.0,95,0.00,,,0.00,VWS V14.01,2013-04-10 12:27:00,
2013-04-10 08:28:00,44.6,43.3,29.98,SW,221,0.0,3.0,95,0.00,,,0.00,VWS V14.01,2013-04-10 12:28:00,
2013-04-10 08:30:00,44.7,43.4,29.98,SW,221,0.0,3.0,95,0.00,,,0.00,VWS V14.01,2013-04-10 12:30:00,
2013-04-10 08:32:00,44.8,43.5,29.99,SW,221,0.0,1.0,95,0.00,,,0.00,VWS V14.01,2013-04-10 12:32:00,
2013-04-10 08:33:00,44.8,43.5,29.99,SW,221,0.0,1.0,95,0.00,,,0.00,VWS V14.01,2013-04-10 12:33:00,
2013-04-10 08:35:00,44.9,43.6,29.99,SW,221,0.0,1.0,95,0.00,,,0.00,VWS V14.01,2013-04-10 12:35:00,
2013-04-10 08:37:00,45.0,43.7,29.98,SW,221,0.0,0.0,95,0.00,,,0.00,VWS V14.01,2013-04-10 12:37:00,
2013-04-10 08:38:00,45.0,43.7,29.98,SW,221,2.0,3.0,95,0.00,,,0.00,VWS V14.01,2013-04-10 12:38:00,
2013-04-10 08:40:00,45.0,43.7,29.98,SW,224,1.0,3.0,95,0.00,,,0.00,VWS V14.01,2013-04-10 12:40:00,
2013-04-10 08:42:00,45.0,43.7,29.99,SW,223,0.0,2.0,95,0.00,,,0.00,VWS V14.01,2013-04-10 12:42:00,
2013-04-10 08:43:00,45.0,43.7,29.99,SW,223,0.0,2.0,95,0.00,,,0.00,VWS V14.01,2013-04-10 12:43:00,
2013-04-10 08:44:00,45.0,43.7,29.99,SW,223,0.0,2.0,95,0.00,,,0.00,VWS V14.01,2013-04-10 12:44:00,
2013-04-10 08:45:00,45.0,43.7,29.99,SW,217,1.0,2.0,95,0.00,,,0.00,VWS V14.01,2013-04-10 12:45:00,
2013-04-10 08:47:00,45.0,43.7,29.99,SW,217,0.0,1.0,95,0.00,,,0.00,VWS V14.01,2013-04-10 12:47:00,
2013-04-10 08:48:00,45.1,43.8,29.99,SW,217,0.0,1.0,95,0.00,,,0.00,VWS V14.01,2013-04-10 12:48:00,
2013-04-10 08:49:00,45.1,43.8,29.99,SW,217,0.0,1.0,95,0.00,,,0.00,VWS V14.01,2013-04-10 12:49:00,
2013-04-10 08:50:00,45.1,43.8,29.99,SW,217,0.0,1.0,95,0.00,,,0.00,VWS V14.01,2013-04-10 12:50:00,
2013-04-10 08:52:00,45.2,43.9,29.99,SW,217,0.0,1.0,95,0.00,,,0.00,VWS V14.01,2013-04-10 12:52:00,
2013-04-10 08:53:00,45.2,43.9,29.99,SW,217,0.0,1.0,95,0.00,,,0.00,VWS V14.01,2013-04-10 12:53:00,
2013-04-10 08:54:00,45.2,43.9,29.98,SW,217,0.0,1.0,95,0.00,,,0.00,VWS V14.01,2013-04-10 12:54:00,
2013-04-10 08:55:00,45.3,44.0,29.98,SW,217,0.0,1.0,95,0.00,,,0.00,VWS V14.01,2013-04-10 12:55:00,
2013-04-10 08:57:00,45.3,44.0,29.98,SSW,212,0.0,7.0,95,0.00,,,0.00,VWS V14.01,2013-04-10 12:57:00,
2013-04-10 08:58:00,45.3,44.0,29.98,SSW,212,0.0,7.0,95,0.00,,,0.00,VWS V14.01,2013-04-10 12:58:00,
2013-04-10 08:59:00,45.3,44.0,29.98,SSW,211,0.0,7.0,95,0.00,,,0.00,VWS V14.01,2013-04-10 12:59:00,
2013-04-10 09:00:00,45.3,44.0,29.98,SSW,212,0.0,7.0,95,0.00,,,0.00,VWS V14.01,2013-04-10 13:00:00,
2013-04-10 09:02:00,45.4,44.0,29.98,SSW,212,0.0,1.0,95,0.00,,,0.00,VWS V14.01,2013-04-10 13:02:00,
2013-04-10 09:03:00,45.5,44.2,29.98,SSW,212,0.0,1.0,95,0.00,,,0.00,VWS V14.01,2013-04-10 13:03:00,
2013-04-10 09:04:00,45.6,44.2,29.98,SSW,212,0.0,1.0,95,0.00,,,0.00,VWS V14.01,2013-04-10 13:04:00,
2013-04-10 09:05:00,45.6,44.2,29.98,SSW,212,0.0,1.0,95,0.00,,,0.00,VWS V14.01,2013-04-10 13:05:00,
2013-04-10 09:08:00,45.8,44.5,29.98,SSW,205,2.0,3.0,95,0.00,,,0.00,VWS V14.01,2013-04-10 13:08:00,
2013-04-10 09:09:00,45.8,44.5,29.98,SSW,205,1.0,3.0,95,0.00,,,0.00,VWS V14.01,2013-04-10 13:09:00,
2013-04-10 09:10:00,45.8,44.5,29.98,SSW,205,0.0,3.0,95,0.00,,,0.00,VWS V14.01,2013-04-10 13:10:00,
2013-04-10 09:13:00,45.8,44.5,29.99,SSW,205,2.0,3.0,95,0.00,,,0.00,VWS V14.01,2013-04-10 13:13:00,
2013-04-10 09:14:00,45.8,44.5,29.99,SSW,205,1.0,3.0,95,0.00,,,0.00,VWS V14.01,2013-04-10 13:14:00,
2013-04-10 09:15:00,45.8,44.5,29.99,SSW,205,1.0,3.0,95,0.00,,,0.00,VWS V14.01,2013-04-10 13:15:00,
2013-04-10 09:18:00,45.7,44.3,29.98,SSW,207,0.0,5.0,95,0.00,,,0.00,VWS V14.01,2013-04-10 13:18:00,
2013-04-10 09:19:00,45.7,44.3,29.99,SSW,207,1.0,5.0,95,0.00,,,0.00,VWS V14.01,2013-04-10 13:19:00,
2013-04-10 09:20:00,45.7,44.3,29.99,SSW,207,1.0,1.0,95,0.00,,,0.00,VWS V14.01,2013-04-10 13:20:00,
2013-04-10 09:23:00,45.7,44.3,29.99,SW,224,0.0,6.0,95,0.00,,,0.00,VWS V14.01,2013-04-10 13:23:00,
2013-04-10 09:24:00,45.7,44.3,29.99,SW,224,0.0,6.0,95,0.00,,,0.00,VWS V14.01,2013-04-10 13:24:00,
2013-04-10 09:25:00,45.7,44.3,29.99,SW,224,0.0,0.0,95,0.00,,,0.00,VWS V14.01,2013-04-10 13:25:00,
2013-04-10 09:28:00,45.7,44.3,29.99,SW,223,1.0,1.0,95,0.00,,,0.00,VWS V14.01,2013-04-10 13:28:00,
2013-04-10 09:29:00,45.7,44.3,29.99,SW,224,0.0,1.0,95,0.00,,,0.00,VWS V14.01,2013-04-10 13:29:00,
2013-04-10 09:30:00,45.7,44.3,29.99,SW,223,0.0,0.0,95,0.00,,,0.00,VWS V14.01,2013-04-10 13:30:00,
2013-04-10 09:33:00,45.7,44.3,29.99,SW,223,0.0,2.0,95,0.00,,,0.00,VWS V14.01,2013-04-10 13:33:00,
2013-04-10 09:34:00,45.7,44.3,29.99,SW,223,0.0,2.0,95,0.00,,,0.00,VWS V14.01,2013-04-10 13:34:00,
2013-04-10 09:35:00,45.7,44.3,30.00,SW,223,0.0,0.0,95,0.00,,,0.00,VWS V14.01,2013-04-10 13:35:00,
2013-04-10 09:38:00,45.7,44.3,30.00,SW,223,0.0,1.0,95,0.00,,,0.00,VWS V14.01,2013-04-10 13:38:00,
2013-04-10 09:39:00,45.7,44.3,30.00,SW,223,0.0,1.0,95,0.00,,,0.00,VWS V14.01,2013-04-10 13:39:00,
2013-04-10 09:40:00,45.8,44.5,30.00,SSE,155,0.0,2.0,95,0.00,,,0.00,VWS V14.01,2013-04-10 13:40:00,
2013-04-10 09:43:00,45.7,44.3,30.00,SSE,155,0.0,2.0,95,0.00,,,0.00,VWS V14.01,2013-04-10 13:43:00,
2013-04-10 09:44:00,45.7,44.3,30.00,SSE,155,0.0,2.0,95,0.00,,,0.00,VWS V14.01,2013-04-10 13:44:00,
2013-04-10 09:45:00,45.7,44.3,30.00,SSE,155,0.0,0.0,95,0.00,,,0.00,VWS V14.01,2013-04-10 13:45:00,
2013-04-10 09:48:00,45.8,44.5,30.00,SSW,206,3.0,4.0,95,0.00,,,0.00,VWS V14.01,2013-04-10 13:48:00,
2013-04-10 09:49:00,45.8,44.5,30.00,SSW,206,0.0,4.0,95,0.00,,,0.00,VWS V14.01,2013-04-10 13:49:00,
2013-04-10 09:50:00,45.8,44.5,30.00,SSW,206,0.0,1.0,95,0.00,,,0.00,VWS V14.01,2013-04-10 13:50:00,
2013-04-10 09:54:00,45.7,44.3,30.00,SSE,156,1.0,6.0,95,0.00,,,0.00,VWS V14.01,2013-04-10 13:54:00,
2013-04-10 09:55:00,45.7,44.3,30.00,South,184,0.0,3.0,95,0.00,,,0.00,VWS V14.01,2013-04-10 13:55:00,
2013-04-10 09:59:00,45.7,44.3,30.01,WSW,245,0.0,4.0,95,0.00,,,0.00,VWS V14.01,2013-04-10 13:59:00,
2013-04-10 10:00:00,45.6,44.0,30.01,West,265,2.0,2.0,94,0.00,,,0.00,VWS V14.01,2013-04-10 14:00:00,
2013-04-10 10:04:00,45.6,44.0,30.01,SW,223,0.0,4.0,94,0.00,,,0.00,VWS V14.01,2013-04-10 14:04:00,
2013-04-10 10:05:00,45.7,44.1,30.01,SW,223,3.0,4.0,94,0.00,,,0.00,VWS V14.01,2013-04-10 14:05:00,
2013-04-10 10:09:00,45.6,44.0,30.01,SW,232,0.0,7.0,94,0.00,,,0.00,VWS V14.01,2013-04-10 14:09:00,
2013-04-10 10:10:00,45.6,44.0,30.01,SW,232,0.0,0.0,94,0.00,,,0.00,VWS V14.01,2013-04-10 14:10:00,
2013-04-10 10:14:00,45.7,44.1,30.01,SW,220,0.0,6.0,94,0.00,,,0.00,VWS V14.01,2013-04-10 14:14:00,
2013-04-10 10:15:00,45.7,44.1,30.01,SW,220,2.0,2.0,94,0.00,,,0.00,VWS V14.01,2013-04-10 14:15:00,
2013-04-10 10:19:00,45.6,44.0,30.01,West,259,0.0,9.0,94,0.00,,,0.00,VWS V14.01,2013-04-10 14:19:00,
2013-04-10 10:20:00,45.6,44.0,30.01,West,259,2.0,2.0,94,0.00,,,0.00,VWS V14.01,2013-04-10 14:20:00,
2013-04-10 10:25:00,45.6,44.0,30.01,ESE,117,0.0,0.0,94,0.00,,,0.00,VWS V14.01,2013-04-10 14:25:00,
2013-04-10 10:30:00,45.5,43.9,30.02,SSW,195,1.0,1.0,94,0.00,,,0.00,VWS V14.01,2013-04-10 14:30:00,
2013-04-10 10:35:00,45.6,43.7,30.02,SE,145,5.0,5.0,93,0.00,,,0.00,VWS V14.01,2013-04-10 14:35:00,
2013-04-10 10:40:00,45.7,44.1,30.01,South,186,3.0,5.0,94,0.00,,,0.00,VWS V14.01,2013-04-10 14:40:00,
2013-04-10 10:41:00,45.7,44.1,30.01,SW,227,1.0,5.0,94,0.00,,,0.00,VWS V14.01,2013-04-10 14:41:00,
2013-04-10 10:45:00,45.7,43.8,30.01,SW,215,2.0,2.0,93,0.00,,,0.00,VWS V14.01,2013-04-10 14:45:00,
2013-04-10 10:46:00,45.7,43.8,30.01,South,187,3.0,9.0,93,0.00,,,0.00,VWS V14.01,2013-04-10 14:46:00,
2013-04-10 10:50:00,45.8,43.9,30.01,South,188,2.0,4.0,93,0.00,,,0.00,VWS V14.01,2013-04-10 14:50:00,
2013-04-10 10:51:00,45.8,43.9,30.00,ESE,114,2.0,4.0,93,0.00,,,0.00,VWS V14.01,2013-04-10 14:51:00,
2013-04-10 10:55:00,46.0,44.1,30.00,ESE,114,3.0,4.0,93,0.00,,,0.00,VWS V14.01,2013-04-10 14:55:00,
2013-04-10 10:56:00,46.0,43.8,30.00,ESE,114,0.0,4.0,92,0.00,,,0.00,VWS V14.01,2013-04-10 14:56:00,
2013-04-10 11:00:00,46.0,43.8,30.00,SSE,168,3.0,3.0,92,0.00,,,0.00,VWS V14.01,2013-04-10 15:00:00,
2013-04-10 11:01:00,46.1,43.9,30.00,SSE,168,0.0,3.0,92,0.00,,,0.00,VWS V14.01,2013-04-10 15:01:00,
2013-04-10 11:02:00,46.1,43.9,30.00,SSE,168,3.0,3.0,92,0.00,,,0.00,VWS V14.01,2013-04-10 15:02:00,
2013-04-10 11:05:00,46.3,44.1,30.00,SW,229,0.0,4.0,92,0.00,,,0.00,VWS V14.01,2013-04-10 15:05:00,
2013-04-10 11:06:00,46.4,44.2,30.00,SSW,210,0.0,4.0,92,0.00,,,0.00,VWS V14.01,2013-04-10 15:06:00,
2013-04-10 11:07:00,46.5,44.3,30.00,SSW,210,0.0,4.0,92,0.00,,,0.00,VWS V14.01,2013-04-10 15:07:00,
2013-04-10 11:10:00,46.7,44.5,30.01,SSW,210,0.0,0.0,92,0.00,,,0.00,VWS V14.01,2013-04-10 15:10:00,
2013-04-10 11:11:00,46.7,44.5,30.01,SSW,210,1.0,1.0,92,0.00,,,0.00,VWS V14.01,2013-04-10 15:11:00,
2013-04-10 11:12:00,46.8,44.6,30.01,SSW,207,1.0,4.0,92,0.00,,,0.00,VWS V14.01,2013-04-10 15:12:00,
2013-04-10 11:15:00,46.8,44.3,30.00,SSW,207,0.0,1.0,91,0.00,,,0.00,VWS V14.01,2013-04-10 15:15:00,
2013-04-10 11:16:00,46.8,44.3,30.00,SSW,207,0.0,1.0,91,0.00,,,0.00,VWS V14.01,2013-04-10 15:16:00,
2013-04-10 11:17:00,46.9,44.4,30.00,SSW,207,0.0,2.0,91,0.00,,,0.00,VWS V14.01,2013-04-10 15:17:00,
2013-04-10 11:20:00,46.8,44.0,30.00,SE,138,0.0,3.0,90,0.00,,,0.00,VWS V14.01,2013-04-10 15:20:00,
2013-04-10 11:21:00,46.7,43.9,30.00,SE,140,0.0,3.0,90,0.00,,,0.00,VWS V14.01,2013-04-10 15:21:00,
2013-04-10 11:23:00,46.7,43.9,30.00,SSW,203,2.0,3.0,90,0.00,,,0.00,VWS V14.01,2013-04-10 15:23:00,
2013-04-10 11:25:00,46.7,43.9,30.00,WSW,237,0.0,1.0,90,0.00,,,0.00,VWS V14.01,2013-04-10 15:25:00,
2013-04-10 11:26:00,46.8,44.0,30.00,WSW,237,1.0,3.0,90,0.00,,,0.00,VWS V14.01,2013-04-10 15:26:00,
2013-04-10 11:27:00,46.8,44.0,30.00,WSW,237,1.0,3.0,90,0.00,,,0.00,VWS V14.01,2013-04-10 15:27:00,
2013-04-10 11:28:00,46.8,44.0,30.00,SSW,196,4.0,5.0,90,0.00,,,0.00,VWS V14.01,2013-04-10 15:28:00,
2013-04-10 11:30:00,46.7,43.9,30.00,WSW,258,0.0,7.0,90,0.00,,,0.00,VWS V14.01,2013-04-10 15:30:00,
2013-04-10 11:31:00,46.8,44.0,30.00,WSW,246,0.0,3.0,90,0.00,,,0.00,VWS V14.01,2013-04-10 15:31:00,
2013-04-10 11:32:00,46.8,44.0,30.00,South,179,3.0,3.0,90,0.00,,,0.00,VWS V14.01,2013-04-10 15:32:00,
2013-04-10 11:33:00,46.8,44.0,30.00,SW,217,2.0,5.0,90,0.00,,,0.00,VWS V14.01,2013-04-10 15:33:00,
2013-04-10 11:35:00,46.9,44.1,30.00,WSW,245,0.0,5.0,90,0.00,,,0.00,VWS V14.01,2013-04-10 15:35:00,
2013-04-10 11:36:00,46.9,44.1,29.99,West,275,2.0,5.0,90,0.00,,,0.00,VWS V14.01,2013-04-10 15:36:00,
2013-04-10 11:37:00,47.0,43.9,29.99,SE,126,3.0,5.0,89,0.00,,,0.00,VWS V14.01,2013-04-10 15:37:00,
2013-04-10 11:38:00,47.1,44.0,29.99,SE,127,0.0,5.0,89,0.00,,,0.00,VWS V14.01,2013-04-10 15:38:00,
2013-04-10 11:40:00,47.2,44.1,29.99,WNW,287,1.0,5.0,89,0.00,,,0.00,VWS V14.01,2013-04-10 15:40:00,
2013-04-10 11:42:00,47.4,44.6,30.00,West,274,0.0,3.0,90,0.00,,,0.00,VWS V14.01,2013-04-10 15:42:00,
2013-04-10 11:43:00,47.7,44.9,30.00,West,267,4.0,4.0,90,0.00,,,0.00,VWS V14.01,2013-04-10 15:43:00,
2013-04-10 11:45:00,47.8,44.7,30.00,WSW,246,1.0,5.0,89,0.00,,,0.00,VWS V14.01,2013-04-10 15:45:00,
2013-04-10 11:47:00,47.9,44.8,29.99,South,169,0.0,2.0,89,0.00,,,0.00,VWS V14.01,2013-04-10 15:47:00,
2013-04-10 11:48:00,47.9,44.5,29.99,SE,126,2.0,7.0,88,0.00,,,0.00,VWS V14.01,2013-04-10 15:48:00,
2013-04-10 11:50:00,47.9,44.5,29.99,ESE,119,3.0,7.0,88,0.00,,,0.00,VWS V14.01,2013-04-10 15:50:00,
2013-04-10 11:52:00,47.9,44.2,29.99,ESE,121,1.0,3.0,87,0.00,,,0.00,VWS V14.01,2013-04-10 15:52:00,
2013-04-10 11:53:00,48.0,44.3,29.99,ESE,122,0.0,3.0,87,0.00,,,0.00,VWS V14.01,2013-04-10 15:53:00,
2013-04-10 11:55:00,48.1,44.7,30.00,SE,132,1.0,3.0,88,0.00,,,0.00,VWS V14.01,2013-04-10 15:55:00,
2013-04-10 11:57:00,48.1,44.4,30.00,SE,132,2.0,3.0,87,0.00,,,0.00,VWS V14.01,2013-04-10 15:57:00,
2013-04-10 11:58:00,48.1,44.4,30.00,WNW,299,1.0,3.0,87,0.00,,,0.00,VWS V14.01,2013-04-10 15:58:00,
2013-04-10 12:00:00,48.1,44.1,30.00,WNW,299,0.0,3.0,86,0.00,,,0.00,VWS V14.01,2013-04-10 16:00:00,
2013-04-10 12:02:00,48.1,44.1,30.00,SE,129,2.0,5.0,86,0.00,,,0.00,VWS V14.01,2013-04-10 16:02:00,
2013-04-10 12:03:00,48.1,44.1,30.00,SE,130,0.0,5.0,86,0.00,,,0.00,VWS V14.01,2013-04-10 16:03:00,
2013-04-10 12:05:00,48.2,44.2,30.00,ESE,113,1.0,5.0,86,0.00,,,0.00,VWS V14.01,2013-04-10 16:05:00,
2013-04-10 12:07:00,48.3,44.0,30.00,SW,220,2.0,3.0,85,0.00,,,0.00,VWS V14.01,2013-04-10 16:07:00,
2013-04-10 12:08:00,48.3,44.0,29.99,SW,214,3.0,4.0,85,0.00,,,0.00,VWS V14.01,2013-04-10 16:08:00,
2013-04-10 12:10:00,48.3,44.0,29.99,South,184,3.0,5.0,85,0.00,,,0.00,VWS V14.01,2013-04-10 16:10:00,
2013-04-10 12:13:00,48.3,43.7,29.99,WSW,238,0.0,5.0,84,0.00,,,0.00,VWS V14.01,2013-04-10 16:13:00,
2013-04-10 12:15:00,48.4,44.1,29.99,SW,225,0.0,5.0,85,0.00,,,0.00,VWS V14.01,2013-04-10 16:15:00,
2013-04-10 12:18:00,48.6,44.0,29.99,WSW,252,0.0,4.0,84,0.00,,,0.00,VWS V14.01,2013-04-10 16:18:00,
2013-04-10 12:20:00,48.7,44.1,30.00,ESE,119,2.0,4.0,84,0.00,,,0.00,VWS V14.01,2013-04-10 16:20:00,
2013-04-10 12:23:00,48.6,43.7,30.00,SE,130,1.0,5.0,83,0.00,,,0.00,VWS V14.01,2013-04-10 16:23:00,
2013-04-10 12:25:00,48.7,43.8,30.00,SE,130,0.0,5.0,83,0.00,,,0.00,VWS V14.01,2013-04-10 16:25:00,
2013-04-10 12:28:00,48.7,43.8,30.00,SE,130,0.0,2.0,83,0.00,,,0.00,VWS V14.01,2013-04-10 16:28:00,
2013-04-10 12:29:00,48.7,43.5,30.00,SE,130,0.0,2.0,82,0.00,,,0.00,VWS V14.01,2013-04-10 16:29:00,
2013-04-10 12:30:00,48.7,43.8,30.00,SE,130,0.0,2.0,83,0.00,,,0.00,VWS V14.01,2013-04-10 16:30:00,
2013-04-10 12:33:00,48.7,43.5,29.99,SE,130,2.0,3.0,82,0.00,,,0.00,VWS V14.01,2013-04-10 16:33:00,
2013-04-10 12:34:00,48.8,43.6,29.99,SE,132,3.0,3.0,82,0.00,,,0.00,VWS V14.01,2013-04-10 16:34:00,
2013-04-10 12:35:00,48.8,43.9,29.98,SE,132,2.0,2.0,83,0.00,,,0.00,VWS V14.01,2013-04-10 16:35:00,
2013-04-10 12:38:00,49.2,43.6,29.98,South,179,3.0,6.0,81,0.00,,,0.00,VWS V14.01,2013-04-10 16:38:00,
2013-04-10 12:39:00,49.2,43.6,29.99,South,174,1.0,6.0,81,0.00,,,0.00,VWS V14.01,2013-04-10 16:39:00,
2013-04-10 12:40:00,49.3,44.0,29.98,South,173,0.0,1.0,82,0.00,,,0.00,VWS V14.01,2013-04-10 16:40:00,
2013-04-10 12:43:00,49.6,44.0,29.98,South,170,3.0,5.0,81,0.00,,,0.00,VWS V14.01,2013-04-10 16:43:00,
2013-04-10 12:44:00,49.6,43.7,29.98,SE,140,3.0,5.0,80,0.00,,,0.00,VWS V14.01,2013-04-10 16:44:00,
2013-04-10 12:45:00,49.6,43.7,29.99,SE,140,0.0,2.0,80,0.00,,,0.00,VWS V14.01,2013-04-10 16:45:00,
2013-04-10 12:48:00,49.7,43.8,29.98,SE,137,1.0,4.0,80,0.00,,,0.00,VWS V14.01,2013-04-10 16:48:00,
2013-04-10 12:50:00,49.7,43.8,29.99,SE,137,0.0,0.0,80,0.00,,,0.00,VWS V14.01,2013-04-10 16:50:00,
2013-04-10 12:54:00,50.0,44.1,29.99,WSW,251,2.0,6.0,80,0.00,,,0.00,VWS V14.01,2013-04-10 16:54:00,
2013-04-10 12:55:00,50.0,43.8,29.99,SW,221,0.0,1.0,79,0.00,,,0.00,VWS V14.01,2013-04-10 16:55:00,
2013-04-10 12:58:00,50.0,43.8,29.99,SW,221,0.0,1.0,79,0.00,,,0.00,VWS V14.01,2013-04-10 16:58:00,
2013-04-10 13:00:00,50.0,43.4,29.99,SW,219,0.0,1.0,78,0.00,,,0.00,VWS V14.01,2013-04-10 17:00:00,
2013-04-10 13:04:00,49.9,43.0,30.00,SW,223,0.0,4.0,77,0.00,,,0.00,VWS V14.01,2013-04-10 17:04:00,
2013-04-10 13:05:00,49.9,43.3,30.00,SW,221,1.0,2.0,78,0.00,,,0.00,VWS V14.01,2013-04-10 17:05:00,
2013-04-10 13:09:00,49.8,43.2,30.01,SW,217,1.0,2.0,78,0.00,,,0.00,VWS V14.01,2013-04-10 17:09:00,
2013-04-10 13:10:00,49.7,42.8,30.01,SW,214,0.0,2.0,77,0.00,,,0.00,VWS V14.01,2013-04-10 17:10:00,
2013-04-10 13:14:00,49.6,42.4,30.01,ESE,111,0.0,2.0,76,0.00,,,0.00,VWS V14.01,2013-04-10 17:14:00,
2013-04-10 13:15:00,49.5,42.3,30.01,ESE,122,0.0,2.0,76,0.00,,,0.00,VWS V14.01,2013-04-10 17:15:00,
2013-04-10 13:16:00,49.5,42.3,30.01,ESE,122,0.0,2.0,76,0.00,,,0.00,VWS V14.01,2013-04-10 17:16:00,
2013-04-10 13:19:00,49.5,42.3,30.01,NNW,339,4.0,5.0,76,0.00,,,0.00,VWS V14.01,2013-04-10 17:19:00,
2013-04-10 13:20:00,49.4,42.2,30.01,NE,52,3.0,5.0,76,0.00,,,0.00,VWS V14.01,2013-04-10 17:20:00,
2013-04-10 13:21:00,49.4,42.5,30.01,East,79,3.0,6.0,77,0.00,,,0.00,VWS V14.01,2013-04-10 17:21:00,
2013-04-10 13:24:00,49.2,42.0,30.02,ESE,115,0.0,7.0,76,0.00,,,0.00,VWS V14.01,2013-04-10 17:24:00,
2013-04-10 13:25:00,49.1,42.2,30.02,ESE,115,0.0,7.0,77,0.00,,,0.00,VWS V14.01,2013-04-10 17:25:00,
2013-04-10 13:26:00,49.1,42.2,30.01,South,183,0.0,3.0,77,0.00,,,0.00,VWS V14.01,2013-04-10 17:26:00,
2013-04-10 13:29:00,49.1,42.5,30.01,South,183,0.0,3.0,78,0.00,,,0.00,VWS V14.01,2013-04-10 17:29:00,
2013-04-10 13:30:00,49.1,42.5,30.01,South,183,1.0,3.0,78,0.00,,,0.00,VWS V14.01,2013-04-10 17:30:00,
2013-04-10 13:31:00,49.1,42.5,30.01,South,183,1.0,2.0,78,0.00,,,0.00,VWS V14.01,2013-04-10 17:31:00,
2013-04-10 13:34:00,49.1,42.5,30.02,South,183,0.0,2.0,78,0.00,,,0.00,VWS V14.01,2013-04-10 17:34:00,
2013-04-10 13:35:00,49.1,42.5,30.02,South,183,0.0,2.0,78,0.00,,,0.00,VWS V14.01,2013-04-10 17:35:00,
2013-04-10 13:37:00,49.0,42.5,30.02,East,101,4.0,5.0,78,0.00,,,0.00,VWS V14.01,2013-04-10 17:37:00,
2013-04-10 13:39:00,48.9,42.3,30.02,SSE,149,1.0,5.0,78,0.00,,,0.00,VWS V14.01,2013-04-10 17:39:00,
2013-04-10 13:40:00,48.9,42.3,30.02,SE,146,2.0,5.0,78,0.00,,,0.00,VWS V14.01,2013-04-10 17:40:00,
2013-04-10 13:42:00,48.8,42.3,30.02,SE,145,2.0,4.0,78,0.00,,,0.00,VWS V14.01,2013-04-10 17:42:00,
2013-04-10 13:43:00,48.7,42.2,30.02,SE,129,2.0,4.0,78,0.00,,,0.00,VWS V14.01,2013-04-10 17:43:00,
2013-04-10 13:44:00,48.6,42.1,30.02,SE,129,2.0,4.0,78,0.00,,,0.00,VWS V14.01,2013-04-10 17:44:00,
2013-04-10 13:45:00,48.6,42.1,30.02,SE,129,1.0,4.0,78,0.00,,,0.00,VWS V14.01,2013-04-10 17:45:00,
2013-04-10 13:47:00,48.5,42.3,30.02,SE,129,0.0,3.0,79,0.00,,,0.00,VWS V14.01,2013-04-10 17:47:00,
2013-04-10 13:48:00,48.5,42.3,30.02,SE,129,0.0,3.0,79,0.00,,,0.00,VWS V14.01,2013-04-10 17:48:00,
2013-04-10 13:49:00,48.4,42.2,30.02,SE,126,4.0,4.0,79,0.00,,,0.00,VWS V14.01,2013-04-10 17:49:00,
2013-04-10 13:50:00,48.4,42.2,30.02,SE,126,1.0,4.0,79,0.00,,,0.00,VWS V14.01,2013-04-10 17:50:00,
2013-04-10 13:52:00,48.2,42.0,30.02,East,86,0.0,4.0,79,0.00,,,0.00,VWS V14.01,2013-04-10 17:52:00,
2013-04-10 13:53:00,48.1,41.9,30.02,East,86,0.0,4.0,79,0.00,,,0.00,VWS V14.01,2013-04-10 17:53:00,
2013-04-10 13:54:00,48.1,41.9,30.02,East,86,1.0,4.0,79,0.00,,,0.00,VWS V14.01,2013-04-10 17:54:00,
2013-04-10 13:55:00,48.1,41.9,30.02,East,86,2.0,4.0,79,0.00,,,0.00,VWS V14.01,2013-04-10 17:55:00,
2013-04-10 13:57:00,48.1,42.2,30.02,East,86,1.0,2.0,80,0.00,,,0.00,VWS V14.01,2013-04-10 17:57:00,
2013-04-10 13:58:00,48.1,42.2,30.02,East,87,2.0,3.0,80,0.00,,,0.00,VWS V14.01,2013-04-10 17:58:00,
2013-04-10 13:59:00,48.1,42.2,30.02,East,87,0.0,3.0,80,0.00,,,0.00,VWS V14.01,2013-04-10 17:59:00,
2013-04-10 14:00:00,48.1,42.2,30.02,East,87,0.0,3.0,80,0.00,,,0.00,VWS V14.01,2013-04-10 18:00:00,
2013-04-10 14:02:00,48.1,42.2,30.02,SSE,165,0.0,2.0,80,0.00,,,0.00,VWS V14.01,2013-04-10 18:02:00,
2013-04-10 14:03:00,48.1,42.5,30.02,SSE,165,0.0,2.0,81,0.00,,,0.00,VWS V14.01,2013-04-10 18:03:00,
2013-04-10 14:04:00,48.1,42.5,30.02,SSE,166,0.0,1.0,81,0.00,,,0.00,VWS V14.01,2013-04-10 18:04:00,
2013-04-10 14:05:00,48.1,42.6,30.02,SSE,165,1.0,2.0,81,0.00,,,0.00,VWS V14.01,2013-04-10 18:05:00,
2013-04-10 14:07:00,48.0,42.5,30.02,SE,133,1.0,5.0,81,0.00,,,0.00,VWS V14.01,2013-04-10 18:07:00,
2013-04-10 14:08:00,48.0,42.1,30.02,SE,133,1.0,5.0,80,0.00,,,0.00,VWS V14.01,2013-04-10 18:08:00,
2013-04-10 14:09:00,47.9,42.0,30.02,SE,132,2.0,2.0,80,0.00,,,0.00,VWS V14.01,2013-04-10 18:09:00,
2013-04-10 14:10:00,47.9,42.0,30.02,SE,132,1.0,5.0,80,0.00,,,0.00,VWS V14.01,2013-04-10 18:10:00,
2013-04-10 14:12:00,47.8,41.9,30.01,SSE,159,3.0,3.0,80,0.00,,,0.00,VWS V14.01,2013-04-10 18:12:00,
2013-04-10 14:13:00,47.8,41.9,30.01,SE,124,4.0,4.0,80,0.00,,,0.00,VWS V14.01,2013-04-10 18:13:00,
2013-04-10 14:15:00,47.8,41.9,30.01,East,82,2.0,3.0,80,0.00,,,0.00,VWS V14.01,2013-04-10 18:15:00,
2013-04-10 14:17:00,47.7,42.2,30.01,East,100,0.0,3.0,81,0.00,,,0.00,VWS V14.01,2013-04-10 18:17:00,
2013-04-10 14:18:00,47.6,42.1,30.00,East,100,0.0,3.0,81,0.00,,,0.00,VWS V14.01,2013-04-10 18:18:00,
2013-04-10 14:19:00,47.6,42.1,30.00,East,99,0.0,3.0,81,0.00,,,0.00,VWS V14.01,2013-04-10 18:19:00,
2013-04-10 14:20:00,47.6,42.1,30.00,East,100,0.0,0.0,81,0.00,,,0.00,VWS V14.01,2013-04-10 18:20:00,
2013-04-10 14:22:00,47.6,42.1,29.99,East,100,0.0,2.0,81,0.00,,,0.00,VWS V14.01,2013-04-10 18:22:00,
2013-04-10 14:23:00,47.6,42.1,29.99,East,99,0.0,2.0,81,0.00,,,0.00,VWS V14.01,2013-04-10 18:23:00,
2013-04-10 14:24:00,47.6,42.1,29.99,East,100,2.0,2.0,81,0.00,,,0.00,VWS V14.01,2013-04-10 18:24:00,
2013-04-10 14:25:00,47.6,42.1,29.98,East,99,0.0,2.0,81,0.00,,,0.00,VWS V14.01,2013-04-10 18:25:00,
2013-04-10 14:27:00,47.5,42.0,29.98,East,100,0.0,2.0,81,0.00,,,0.00,VWS V14.01,2013-04-10 18:27:00,
2013-04-10 14:28:00,47.6,42.1,29.98,East,99,0.0,2.0,81,0.00,,,0.00,VWS V14.01,2013-04-10 18:28:00,
2013-04-10 14:29:00,47.6,42.1,29.98,East,100,0.0,2.0,81,0.00,,,0.00,VWS V14.01,2013-04-10 18:29:00,
2013-04-10 14:30:00,47.5,42.0,29.98,East,100,0.0,0.0,81,0.00,,,0.00,VWS V14.01,2013-04-10 18:30:00,
2013-04-10 14:32:00,47.6,42.4,29.97,East,100,0.0,1.0,82,0.00,,,0.00,VWS V14.01,2013-04-10 18:32:00,
2013-04-10 14:33:00,47.6,42.4,29.97,East,99,0.0,1.0,82,0.00,,,0.00,VWS V14.01,2013-04-10 18:33:00,
2013-04-10 14:34:00,47.7,42.5,29.97,East,100,0.0,1.0,82,0.00,,,0.00,VWS V14.01,2013-04-10 18:34:00,
2013-04-10 14:35:00,47.7,42.5,29.97,ESE,109,0.0,0.0,82,0.00,,,0.00,VWS V14.01,2013-04-10 18:35:00,
2013-04-10 14:38:00,47.8,42.6,29.96,SSE,168,1.0,3.0,82,0.00,,,0.00,VWS V14.01,2013-04-10 18:38:00,
2013-04-10 14:39:00,47.8,42.6,29.96,South,178,2.0,3.0,82,0.00,,,0.00,VWS V14.01,2013-04-10 18:39:00,
2013-04-10 14:40:00,47.8,42.6,29.96,SW,222,3.0,4.0,82,0.00,,,0.00,VWS V14.01,2013-04-10 18:40:00,
2013-04-10 14:43:00,47.8,42.6,29.96,SW,222,0.0,4.0,82,0.00,,,0.00,VWS V14.01,2013-04-10 18:43:00,
2013-04-10 14:44:00,47.9,42.7,29.96,WSW,241,4.0,4.0,82,0.00,,,0.00,VWS V14.01,2013-04-10 18:44:00,
2013-04-10 14:45:00,47.9,42.7,29.96,WSW,248,2.0,3.0,82,0.00,,,0.00,VWS V14.01,2013-04-10 18:45:00,
2013-04-10 14:48:00,47.9,42.7,29.95,WSW,242,0.0,4.0,82,0.00,,,0.00,VWS V14.01,2013-04-10 18:48:00,
2013-04-10 14:49:00,47.9,42.7,29.95,ESE,122,4.0,4.0,82,0.00,,,0.00,VWS V14.01,2013-04-10 18:49:00,
2013-04-10 14:50:00,47.9,42.7,29.95,ESE,122,0.0,0.0,82,0.00,,,0.00,VWS V14.01,2013-04-10 18:50:00,
2013-04-10 14:53:00,48.1,42.9,29.95,ESE,121,1.0,3.0,82,0.00,,,0.00,VWS V14.01,2013-04-10 18:53:00,
2013-04-10 14:54:00,48.1,43.2,29.95,ESE,121,0.0,3.0,83,0.00,,,0.00,VWS V14.01,2013-04-10 18:54:00,
2013-04-10 14:55:00,48.1,43.2,29.95,SSE,168,3.0,3.0,83,0.00,,,0.00,VWS V14.01,2013-04-10 18:55:00,
2013-04-10 14:58:00,48.2,43.3,29.95,SSE,168,0.0,3.0,83,0.00,,,0.00,VWS V14.01,2013-04-10 18:58:00,
2013-04-10 14:59:00,48.2,43.3,29.95,SSE,168,0.0,3.0,83,0.00,,,0.00,VWS V14.01,2013-04-10 18:59:00,
2013-04-10 15:00:00,48.3,43.4,29.96,South,171,3.0,3.0,83,0.00,,,0.00,VWS V14.01,2013-04-10 19:00:00,
2013-04-10 15:03:00,48.3,43.4,29.96,South,169,0.0,3.0,83,0.00,,,0.00,VWS V14.01,2013-04-10 19:03:00,
2013-04-10 15:04:00,48.3,43.4,29.95,SSE,151,0.0,3.0,83,0.00,,,0.00,VWS V14.01,2013-04-10 19:04:00,
2013-04-10 15:05:00,48.3,43.4,29.95,SSE,151,0.0,1.0,83,0.00,,,0.00,VWS V14.01,2013-04-10 19:05:00,
2013-04-10 15:08:00,48.3,43.4,29.95,SSE,155,3.0,3.0,83,0.00,,,0.00,VWS V14.01,2013-04-10 19:08:00,
2013-04-10 15:09:00,48.3,43.4,29.95,ESE,108,5.0,6.0,83,0.00,,,0.00,VWS V14.01,2013-04-10 19:09:00,
2013-04-10 15:10:00,48.3,43.4,29.95,SSW,213,1.0,5.0,83,0.00,,,0.00,VWS V14.01,2013-04-10 19:10:00,
2013-04-10 15:13:00,48.2,43.3,29.95,SE,126,1.0,5.0,83,0.00,,,0.00,VWS V14.01,2013-04-10 19:13:00,
2013-04-10 15:14:00,48.2,43.3,29.95,SE,126,0.0,5.0,83,0.00,,,0.00,VWS V14.01,2013-04-10 19:14:00,
2013-04-10 15:15:00,48.2,43.3,29.95,SE,126,2.0,2.0,83,0.00,,,0.00,VWS V14.01,2013-04-10 19:15:00,
2013-04-10 15:18:00,48.2,43.3,29.95,South,187,3.0,4.0,83,0.00,,,0.00,VWS V14.01,2013-04-10 19:18:00,
2013-04-10 15:19:00,48.1,43.2,29.95,East,96,2.0,4.0,83,0.00,,,0.00,VWS V14.01,2013-04-10 19:19:00,
2013-04-10 15:20:00,48.1,43.2,29.95,SE,146,1.0,3.0,83,0.00,,,0.00,VWS V14.01,2013-04-10 19:20:00,
2013-04-10 15:23:00,48.0,43.4,29.95,SE,140,0.0,4.0,84,0.00,,,0.00,VWS V14.01,2013-04-10 19:23:00,
2013-04-10 15:25:00,48.0,43.4,29.95,SE,141,0.0,0.0,84,0.00,,,0.00,VWS V14.01,2013-04-10 19:25:00,
2013-04-10 15:28:00,47.9,43.3,29.95,SW,229,0.0,5.0,84,0.00,,,0.00,VWS V14.01,2013-04-10 19:28:00,
2013-04-10 15:30:00,47.9,43.3,29.94,SW,236,0.0,1.0,84,0.00,,,0.00,VWS V14.01,2013-04-10 19:30:00,
2013-04-10 15:31:00,47.8,43.2,29.94,SE,138,3.0,4.0,84,0.00,,,0.00,VWS V14.01,2013-04-10 19:31:00,
2013-04-10 15:33:00,47.7,42.8,29.94,SSW,199,0.0,4.0,83,0.00,,,0.00,VWS V14.01,2013-04-10 19:33:00,
2013-04-10 15:35:00,47.7,43.1,29.94,SSW,199,0.0,1.0,84,0.00,,,0.00,VWS V14.01,2013-04-10 19:35:00,
2013-04-10 15:36:00,47.7,43.1,29.94,South,191,0.0,3.0,84,0.00,,,0.00,VWS V14.01,2013-04-10 19:36:00,
2013-04-10 15:38:00,47.6,43.0,29.94,ESE,117,0.0,4.0,84,0.00,,,0.00,VWS V14.01,2013-04-10 19:38:00,
2013-04-10 15:40:00,47.6,43.0,29.94,SE,130,2.0,2.0,84,0.00,,,0.00,VWS V14.01,2013-04-10 19:40:00,
2013-04-10 15:41:00,47.6,43.0,29.94,SE,131,0.0,3.0,84,0.00,,,0.00,VWS V14.01,2013-04-10 19:41:00,
2013-04-10 15:44:00,47.6,43.0,29.95,SE,131,0.0,3.0,84,0.00,,,0.00,VWS V14.01,2013-04-10 19:44:00,
2013-04-10 15:45:00,47.6,43.0,29.95,SE,130,0.0,0.0,84,0.00,,,0.00,VWS V14.01,2013-04-10 19:45:00,
2013-04-10 15:47:00,47.6,43.0,29.96,SE,131,0.0,0.0,84,0.00,,,0.00,VWS V14.01,2013-04-10 19:47:00,
2013-04-10 15:49:00,47.7,43.4,29.96,SE,131,1.0,2.0,85,0.00,,,0.00,VWS V14.01,2013-04-10 19:49:00,
2013-04-10 15:50:00,47.7,43.4,29.96,SE,131,0.0,0.0,85,0.00,,,0.00,VWS V14.01,2013-04-10 19:50:00,
2013-04-10 15:51:00,47.7,43.4,29.96,SE,130,0.0,0.0,85,0.00,,,0.00,VWS V14.01,2013-04-10 19:51:00,
2013-04-10 15:53:00,47.7,43.1,29.96,SE,132,2.0,2.0,84,0.00,,,0.00,VWS V14.01,2013-04-10 19:53:00,
2013-04-10 15:54:00,47.7,43.1,29.96,SE,132,0.0,2.0,84,0.00,,,0.00,VWS V14.01,2013-04-10 19:54:00,
2013-04-10 15:55:00,47.6,43.0,29.96,SE,132,0.0,2.0,84,0.00,,,0.00,VWS V14.01,2013-04-10 19:55:00,
2013-04-10 15:56:00,47.6,43.0,29.95,SE,132,1.0,3.0,84,0.00,,,0.00,VWS V14.01,2013-04-10 19:56:00,
2013-04-10 15:58:00,47.6,43.0,29.95,SE,132,0.0,3.0,84,0.00,,,0.00,VWS V14.01,2013-04-10 19:58:00,
2013-04-10 15:59:00,47.6,43.0,29.95,SE,132,1.0,3.0,84,0.00,,,0.00,VWS V14.01,2013-04-10 19:59:00,
2013-04-10 16:00:00,47.6,43.0,29.95,SE,132,0.0,3.0,84,0.00,,,0.00,VWS V14.01,2013-04-10 20:00:00,
2013-04-10 16:01:00,47.5,42.9,29.95,SE,132,0.0,1.0,84,0.00,,,0.00,VWS V14.01,2013-04-10 20:01:00,
2013-04-10 16:02:00,47.5,42.9,29.95,SE,132,0.0,1.0,84,0.00,,,0.00,VWS V14.01,2013-04-10 20:02:00,
2013-04-10 16:03:00,47.5,42.9,29.95,SE,132,0.0,1.0,84,0.00,,,0.00,VWS V14.01,2013-04-10 20:03:00,
2013-04-10 16:04:00,47.5,42.9,29.95,SE,132,2.0,2.0,84,0.00,,,0.00,VWS V14.01,2013-04-10 20:04:00,
2013-04-10 16:05:00,47.5,42.9,29.95,SE,132,0.0,2.0,84,0.00,,,0.00,VWS V14.01,2013-04-10 20:05:00,
2013-04-10 16:06:00,47.4,42.8,29.95,SE,132,0.0,2.0,84,0.00,,,0.00,VWS V14.01,2013-04-10 20:06:00,
2013-04-10 16:07:00,47.5,42.9,29.95,SE,132,0.0,2.0,84,0.00,,,0.00,VWS V14.01,2013-04-10 20:07:00,
2013-04-10 16:08:00,47.5,42.9,29.95,SE,132,0.0,2.0,84,0.00,,,0.00,VWS V14.01,2013-04-10 20:08:00,
2013-04-10 16:09:00,47.5,42.9,29.95,SE,132,0.0,2.0,84,0.00,,,0.00,VWS V14.01,2013-04-10 20:09:00,
2013-04-10 16:10:00,47.5,42.9,29.95,SE,132,0.0,2.0,84,0.00,,,0.00,VWS V14.01,2013-04-10 20:10:00,
2013-04-10 16:11:00,47.5,42.9,29.95,SE,132,0.0,0.0,84,0.00,,,0.00,VWS V14.01,2013-04-10 20:11:00,
2013-04-10 16:12:00,47.5,42.9,29.95,SE,132,0.0,0.0,84,0.00,,,0.00,VWS V14.01,2013-04-10 20:12:00,
2013-04-10 16:14:00,47.6,43.0,29.95,SE,132,0.0,0.0,84,0.00,,,0.00,VWS V14.01,2013-04-10 20:14:00,
2013-04-10 16:15:00,47.6,43.0,29.95,SE,138,0.0,3.0,84,0.00,,,0.00,VWS V14.01,2013-04-10 20:15:00,
2013-04-10 16:16:00,47.6,43.0,29.95,SE,138,0.0,0.0,84,0.00,,,0.00,VWS V14.01,2013-04-10 20:16:00,
2013-04-10 16:17:00,47.6,43.0,29.95,SE,137,0.0,0.0,84,0.00,,,0.00,VWS V14.01,2013-04-10 20:17:00,
2013-04-10 16:18:00,47.6,43.0,29.96,SE,138,0.0,0.0,84,0.00,,,0.00,VWS V14.01,2013-04-10 20:18:00,
2013-04-10 16:19:00,47.6,43.0,29.96,SE,138,0.0,0.0,84,0.00,,,0.00,VWS V14.01,2013-04-10 20:19:00,
2013-04-10 16:20:00,47.6,43.0,29.96,SE,137,0.0,2.0,84,0.00,,,0.00,VWS V14.01,2013-04-10 20:20:00,
2013-04-10 16:22:00,47.6,43.0,29.96,SE,138,1.0,3.0,84,0.00,,,0.00,VWS V14.01,2013-04-10 20:22:00,
2013-04-10 16:24:00,47.6,43.0,29.96,South,178,1.0,4.0,84,0.00,,,0.00,VWS V14.01,2013-04-10 20:24:00,
2013-04-10 16:25:00,47.6,42.7,29.96,South,178,0.0,0.0,83,0.00,,,0.00,VWS V14.01,2013-04-10 20:25:00,
2013-04-10 16:27:00,47.5,42.6,29.96,SSE,161,0.0,3.0,83,0.00,,,0.00,VWS V14.01,2013-04-10 20:27:00,
2013-04-10 16:29:00,47.5,42.6,29.95,SSE,161,0.0,3.0,83,0.00,,,0.00,VWS V14.01,2013-04-10 20:29:00,
2013-04-10 16:30:00,47.4,42.5,29.95,SSE,161,0.0,0.0,83,0.00,,,0.00,VWS V14.01,2013-04-10 20:30:00,
2013-04-10 16:32:00,47.4,42.5,29.95,SSE,161,0.0,2.0,83,0.00,,,0.00,VWS V14.01,2013-04-10 20:32:00,
2013-04-10 16:34:00,47.4,42.8,29.95,SSE,161,2.0,2.0,84,0.00,,,0.00,VWS V14.01,2013-04-10 20:34:00,
2013-04-10 16:35:00,47.4,42.8,29.95,SSE,161,1.0,2.0,84,0.00,,,0.00,VWS V14.01,2013-04-10 20:35:00,
2013-04-10 16:37:00,47.5,42.9,29.95,SSE,163,0.0,4.0,84,0.00,,,0.00,VWS V14.01,2013-04-10 20:37:00,
2013-04-10 16:39:00,47.4,42.8,29.95,SSE,163,1.0,4.0,84,0.00,,,0.00,VWS V14.01,2013-04-10 20:39:00,
2013-04-10 16:40:00,47.4,42.8,29.95,SSE,163,0.0,1.0,84,0.00,,,0.00,VWS V14.01,2013-04-10 20:40:00,
2013-04-10 16:41:00,47.4,42.8,29.95,SSE,163,0.0,1.0,84,0.00,,,0.00,VWS V14.01,2013-04-10 20:41:00,
2013-04-10 16:42:00,47.4,42.5,29.95,SSE,165,5.0,5.0,83,0.00,,,0.00,VWS V14.01,2013-04-10 20:42:00,
2013-04-10 16:44:00,47.4,42.5,29.95,SSE,167,0.0,5.0,83,0.00,,,0.00,VWS V14.01,2013-04-10 20:44:00,
2013-04-10 16:45:00,47.4,42.5,29.95,SSE,167,0.0,0.0,83,0.00,,,0.00,VWS V14.01,2013-04-10 20:45:00,
2013-04-10 16:46:00,47.4,42.5,29.95,SSE,167,0.0,0.0,83,0.00,,,0.00,VWS V14.01,2013-04-10 20:46:00,
2013-04-10 16:48:00,47.3,42.4,29.96,SSE,167,0.0,2.0,83,0.00,,,0.00,VWS V14.01,2013-04-10 20:48:00,
2013-04-10 16:50:00,47.3,42.4,29.96,SSE,167,0.0,0.0,83,0.00,,,0.00,VWS V14.01,2013-04-10 20:50:00,
2013-04-10 16:52:00,47.2,42.3,29.96,SSE,167,0.0,0.0,83,0.00,,,0.00,VWS V14.01,2013-04-10 20:52:00,
2013-04-10 16:53:00,47.2,42.3,29.96,SSE,167,2.0,3.0,83,0.00,,,0.00,VWS V14.01,2013-04-10 20:53:00,
2013-04-10 16:55:00,47.2,42.3,29.96,WSW,242,2.0,5.0,83,0.00,,,0.00,VWS V14.01,2013-04-10 20:55:00,
2013-04-10 16:57:00,47.1,42.2,29.96,WSW,242,0.0,5.0,83,0.00,,,0.00,VWS V14.01,2013-04-10 20:57:00,
2013-04-10 16:58:00,47.0,42.1,29.97,WSW,242,0.0,5.0,83,0.00,,,0.00,VWS V14.01,2013-04-10 20:58:00,
2013-04-10 17:00:00,47.0,42.4,29.97,WSW,239,1.0,2.0,84,0.00,,,0.00,VWS V14.01,2013-04-10 21:00:00,
2013-04-10 17:02:00,46.9,42.0,29.97,WSW,239,1.0,2.0,83,0.00,,,0.00,VWS V14.01,2013-04-10 21:02:00,
2013-04-10 17:03:00,46.8,41.9,29.97,WSW,248,3.0,3.0,83,0.00,,,0.00,VWS V14.01,2013-04-10 21:03:00,
2013-04-10 17:05:00,46.7,41.8,29.97,SW,219,2.0,2.0,83,0.00,,,0.00,VWS V14.01,2013-04-10 21:05:00,
2013-04-10 17:07:00,46.7,41.8,29.97,SSW,198,5.0,5.0,83,0.00,,,0.00,VWS V14.01,2013-04-10 21:07:00,
2013-04-10 17:08:00,46.6,41.7,29.97,SW,236,5.0,6.0,83,0.00,,,0.00,VWS V14.01,2013-04-10 21:08:00,
2013-04-10 17:10:00,46.5,41.6,29.97,SW,221,1.0,4.0,83,0.00,,,0.00,VWS V14.01,2013-04-10 21:10:00,
2013-04-10 17:13:00,46.4,41.8,29.97,SW,215,0.0,4.0,84,0.00,,,0.00,VWS V14.01,2013-04-10 21:13:00,
2013-04-10 17:14:00,46.3,41.7,29.96,SW,215,0.0,4.0,84,0.00,,,0.00,VWS V14.01,2013-04-10 21:14:00,
2013-04-10 17:15:00,46.3,41.7,29.96,SW,216,2.0,5.0,84,0.00,,,0.00,VWS V14.01,2013-04-10 21:15:00,
2013-04-10 17:16:00,46.3,41.7,29.96,SW,216,2.0,5.0,84,0.00,,,0.00,VWS V14.01,2013-04-10 21:16:00,
2013-04-10 17:18:00,46.2,41.6,29.96,SW,216,0.0,5.0,84,0.00,,,0.00,VWS V14.01,2013-04-10 21:18:00,
2013-04-10 17:19:00,46.2,41.6,29.95,SW,218,2.0,5.0,84,0.00,,,0.00,VWS V14.01,2013-04-10 21:19:00,
2013-04-10 17:20:00,46.1,41.8,29.95,SW,229,4.0,4.0,85,0.00,,,0.00,VWS V14.01,2013-04-10 21:20:00,
2013-04-10 17:21:00,46.0,41.8,29.95,SSE,165,4.0,4.0,85,0.00,,,0.00,VWS V14.01,2013-04-10 21:21:00,
2013-04-10 17:23:00,45.9,41.7,29.95,SSE,165,2.0,4.0,85,0.00,,,0.00,VWS V14.01,2013-04-10 21:23:00,
2013-04-10 17:24:00,45.9,42.0,29.95,East,98,0.0,4.0,86,0.00,,,0.00,VWS V14.01,2013-04-10 21:24:00,
2013-04-10 17:25:00,45.8,41.9,29.95,WSW,248,2.0,4.0,86,0.00,,,0.00,VWS V14.01,2013-04-10 21:25:00,
2013-04-10 17:26:00,45.8,41.9,29.95,WSW,248,2.0,4.0,86,0.00,,,0.00,VWS V14.01,2013-04-10 21:26:00,
2013-04-10 17:28:00,45.7,41.8,29.95,WSW,254,3.0,4.0,86,0.00,,,0.00,VWS V14.01,2013-04-10 21:28:00,
2013-04-10 17:29:00,45.6,41.7,29.94,SW,233,3.0,5.0,86,0.00,,,0.00,VWS V14.01,2013-04-10 21:29:00,
2013-04-10 17:30:00,45.5,41.6,29.94,SW,232,3.0,4.0,86,0.00,,,0.00,VWS V14.01,2013-04-10 21:30:00,
2013-04-10 17:32:00,45.4,41.5,29.94,SW,232,0.0,4.0,86,0.00,,,0.00,VWS V14.01,2013-04-10 21:32:00,
2013-04-10 17:33:00,45.4,41.5,29.94,SW,236,1.0,4.0,86,0.00,,,0.00,VWS V14.01,2013-04-10 21:33:00,
2013-04-10 17:34:00,45.3,41.7,29.93,SW,236,1.0,1.0,87,0.00,,,0.00,VWS V14.01,2013-04-10 21:34:00,
2013-04-10 17:35:00,45.3,41.7,29.93,SW,236,1.0,4.0,87,0.00,,,0.00,VWS V14.01,2013-04-10 21:35:00,
2013-04-10 17:36:00,45.2,41.6,29.93,SW,236,5.0,5.0,87,0.00,,,0.00,VWS V14.01,2013-04-10 21:36:00,
2013-04-10 17:37:00,45.2,41.6,29.93,SW,236,3.0,5.0,87,0.00,,,0.00,VWS V14.01,2013-04-10 21:37:00,
2013-04-10 17:38:00,45.1,41.5,29.94,SW,236,0.0,5.0,87,0.00,,,0.00,VWS V14.01,2013-04-10 21:38:00,
2013-04-10 17:40:00,45.1,41.5,29.93,WSW,237,0.0,0.0,87,0.00,,,0.00,VWS V14.01,2013-04-10 21:40:00,
2013-04-10 17:41:00,45.0,41.4,29.93,WSW,237,0.0,2.0,87,0.00,,,0.00,VWS V14.01,2013-04-10 21:41:00,
2013-04-10 17:42:00,45.0,41.4,29.94,WSW,237,0.0,2.0,87,0.00,,,0.00,VWS V14.01,2013-04-10 21:42:00,
2013-04-10 17:43:00,45.0,41.4,29.94,WSW,237,0.0,2.0,87,0.00,,,0.00,VWS V14.01,2013-04-10 21:43:00,
2013-04-10 17:45:00,45.0,41.7,29.93,WSW,237,0.0,0.0,88,0.00,,,0.00,VWS V14.01,2013-04-10 21:45:00,
2013-04-10 17:47:00,45.0,41.7,29.93,WSW,237,3.0,4.0,88,0.00,,,0.00,VWS V14.01,2013-04-10 21:47:00,
2013-04-10 17:48:00,45.0,41.7,29.94,WSW,237,1.0,4.0,88,0.00,,,0.00,VWS V14.01,2013-04-10 21:48:00,
2013-04-10 17:50:00,45.0,41.7,29.94,WSW,237,0.0,0.0,88,0.00,,,0.00,VWS V14.01,2013-04-10 21:50:00,
2013-04-10 17:52:00,45.0,41.7,29.94,WSW,237,0.0,2.0,88,0.00,,,0.00,VWS V14.01,2013-04-10 21:52:00,
2013-04-10 17:53:00,45.0,41.7,29.94,WSW,237,0.0,2.0,88,0.00,,,0.00,VWS V14.01,2013-04-10 21:53:00,
2013-04-10 17:55:00,44.9,41.6,29.93,WSW,237,0.0,0.0,88,0.00,,,0.00,VWS V14.01,2013-04-10 21:55:00,
2013-04-10 17:57:00,44.9,41.6,29.93,WSW,237,0.0,2.0,88,0.00,,,0.00,VWS V14.01,2013-04-10 21:57:00,
2013-04-10 17:58:00,44.8,41.5,29.93,WSW,237,0.0,2.0,88,0.00,,,0.00,VWS V14.01,2013-04-10 21:58:00,
2013-04-10 18:00:00,44.8,41.8,29.93,WSW,237,2.0,2.0,89,0.00,,,0.00,VWS V14.01,2013-04-10 22:00:00,
2013-04-10 18:02:00,44.7,41.7,29.92,WSW,237,0.0,3.0,89,0.00,,,0.00,VWS V14.01,2013-04-10 22:02:00,
2013-04-10 18:03:00,44.7,41.7,29.93,WSW,237,0.0,3.0,89,0.00,,,0.00,VWS V14.01,2013-04-10 22:03:00,
2013-04-10 18:04:00,44.7,41.7,29.93,WSW,237,0.0,3.0,89,0.00,,,0.00,VWS V14.01,2013-04-10 22:04:00,
2013-04-10 18:05:00,44.7,41.7,29.93,WSW,237,1.0,1.0,89,0.00,,,0.00,VWS V14.01,2013-04-10 22:05:00,
2013-04-10 18:07:00,44.6,41.6,29.93,WSW,237,2.0,3.0,89,0.00,,,0.00,VWS V14.01,2013-04-10 22:07:00,
2013-04-10 18:08:00,44.6,41.6,29.93,WSW,237,0.0,3.0,89,0.00,,,0.00,VWS V14.01,2013-04-10 22:08:00,
2013-04-10 18:09:00,44.6,41.6,29.93,WSW,237,0.0,3.0,89,0.00,,,0.00,VWS V14.01,2013-04-10 22:09:00,
2013-04-10 18:10:00,44.6,41.6,29.93,WSW,237,0.0,0.0,89,0.00,,,0.00,VWS V14.01,2013-04-10 22:10:00,
2013-04-10 18:12:00,44.5,41.5,29.93,WSW,237,0.0,3.0,89,0.00,,,0.00,VWS V14.01,2013-04-10 22:12:00,
2013-04-10 18:13:00,44.5,41.5,29.92,WSW,237,2.0,3.0,89,0.00,,,0.00,VWS V14.01,2013-04-10 22:13:00,
2013-04-10 18:14:00,44.5,41.5,29.92,WSW,237,0.0,3.0,89,0.00,,,0.00,VWS V14.01,2013-04-10 22:14:00,
2013-04-10 18:15:00,44.5,41.5,29.92,WSW,237,0.0,0.0,89,0.00,,,0.00,VWS V14.01,2013-04-10 22:15:00,
2013-04-10 18:17:00,44.5,41.5,29.92,SW,235,0.0,2.0,89,0.00,,,0.00,VWS V14.01,2013-04-10 22:17:00,
2013-04-10 18:18:00,44.5,41.5,29.92,SW,235,0.0,2.0,89,0.00,,,0.00,VWS V14.01,2013-04-10 22:18:00,
2013-04-10 18:19:00,44.4,41.4,29.92,SW,235,0.0,2.0,89,0.00,,,0.00,VWS V14.01,2013-04-10 22:19:00,
2013-04-10 18:20:00,44.4,41.4,29.92,SW,234,2.0,3.0,89,0.00,,,0.00,VWS V14.01,2013-04-10 22:20:00,
2013-04-10 18:22:00,44.4,41.7,29.92,SW,234,0.0,3.0,90,0.00,,,0.00,VWS V14.01,2013-04-10 22:22:00,
2013-04-10 18:23:00,44.4,41.7,29.92,SW,234,0.0,3.0,90,0.00,,,0.00,VWS V14.01,2013-04-10 22:23:00,
2013-04-10 18:24:00,44.3,41.6,29.92,SW,234,0.0,3.0,90,0.00,,,0.00,VWS V14.01,2013-04-10 22:24:00,
2013-04-10 18:25:00,44.3,41.6,29.92,SW,234,0.0,0.0,90,0.00,,,0.00,VWS V14.01,2013-04-10 22:25:00,
2013-04-10 18:27:00,44.2,41.5,29.93,SW,234,0.0,1.0,90,0.00,,,0.00,VWS V14.01,2013-04-10 22:27:00,
2013-04-10 18:28:00,44.2,41.5,29.93,West,262,1.0,3.0,90,0.00,,,0.00,VWS V14.01,2013-04-10 22:28:00,
2013-04-10 18:29:00,44.2,41.5,29.93,West,262,1.0,3.0,90,0.00,,,0.00,VWS V14.01,2013-04-10 22:29:00,
2013-04-10 18:30:00,44.2,41.5,29.93,SSW,196,4.0,6.0,90,0.00,,,0.00,VWS V14.01,2013-04-10 22:30:00,
2013-04-10 18:32:00,44.1,41.4,29.93,SSW,205,2.0,6.0,90,0.00,,,0.00,VWS V14.01,2013-04-10 22:32:00,
2013-04-10 18:33:00,44.0,41.3,29.93,SSW,205,0.0,6.0,90,0.00,,,0.00,VWS V14.01,2013-04-10 22:33:00,
2013-04-10 18:34:00,44.0,41.3,29.93,SSW,205,0.0,6.0,90,0.00,,,0.00,VWS V14.01,2013-04-10 22:34:00,
2013-04-10 18:35:00,44.0,41.3,29.94,SSW,194,0.0,2.0,90,0.00,,,0.00,VWS V14.01,2013-04-10 22:35:00,
2013-04-10 18:37:00,44.0,41.3,29.94,SSW,198,0.0,2.0,90,0.00,,,0.00,VWS V14.01,2013-04-10 22:37:00,
2013-04-10 18:39:00,44.0,41.3,29.94,WSW,248,0.0,5.0,90,0.00,,,0.00,VWS V14.01,2013-04-10 22:39:00,
2013-04-10 18:40:00,44.0,41.3,29.94,WSW,248,0.0,5.0,90,0.00,,,0.00,VWS V14.01,2013-04-10 22:40:00,
2013-04-10 18:41:00,43.9,41.2,29.95,WSW,248,1.0,1.0,90,0.00,,,0.00,VWS V14.01,2013-04-10 22:41:00,
2013-04-10 18:42:00,43.9,41.2,29.95,SSW,205,2.0,2.0,90,0.00,,,0.00,VWS V14.01,2013-04-10 22:42:00,
2013-04-10 18:44:00,43.9,41.2,29.96,SE,142,0.0,3.0,90,0.00,,,0.00,VWS V14.01,2013-04-10 22:44:00,
2013-04-10 18:45:00,43.8,41.1,29.96,South,171,0.0,3.0,90,0.00,,,0.00,VWS V14.01,2013-04-10 22:45:00,
2013-04-10 18:46:00,43.8,41.1,29.97,South,180,0.0,2.0,90,0.00,,,0.00,VWS V14.01,2013-04-10 22:46:00,
2013-04-10 18:48:00,43.8,41.1,29.97,South,179,0.0,2.0,90,0.00,,,0.00,VWS V14.01,2013-04-10 22:48:00,
2013-04-10 18:49:00,43.8,41.1,29.97,South,179,0.0,2.0,90,0.00,,,0.00,VWS V14.01,2013-04-10 22:49:00,
2013-04-10 18:50:00,43.7,41.0,29.97,South,179,0.0,2.0,90,0.00,,,0.00,VWS V14.01,2013-04-10 22:50:00,
2013-04-10 18:52:00,43.7,41.0,29.97,South,180,1.0,2.0,90,0.00,,,0.00,VWS V14.01,2013-04-10 22:52:00,
2013-04-10 18:53:00,43.7,41.0,29.97,South,180,0.0,2.0,90,0.00,,,0.00,VWS V14.01,2013-04-10 22:53:00,
2013-04-10 18:54:00,43.7,41.0,29.97,South,179,0.0,2.0,90,0.00,,,0.00,VWS V14.01,2013-04-10 22:54:00,
2013-04-10 18:55:00,43.7,41.2,29.98,South,179,0.0,0.0,91,0.00,,,0.00,VWS V14.01,2013-04-10 22:55:00,
2013-04-10 18:57:00,43.7,41.2,29.97,South,180,0.0,0.0,91,0.00,,,0.00,VWS V14.01,2013-04-10 22:57:00,
2013-04-10 18:58:00,43.7,41.2,29.97,South,180,0.0,0.0,91,0.00,,,0.00,VWS V14.01,2013-04-10 22:58:00,
2013-04-10 19:00:00,43.6,41.2,29.96,South,180,0.0,0.0,91,0.00,,,0.00,VWS V14.01,2013-04-10 23:00:00,
2013-04-10 19:02:00,43.5,41.0,29.95,WSW,250,2.0,3.0,91,0.00,,,0.00,VWS V14.01,2013-04-10 23:02:00,
2013-04-10 19:03:00,43.5,41.0,29.94,WSW,249,1.0,3.0,91,0.00,,,0.00,VWS V14.01,2013-04-10 23:03:00,
2013-04-10 19:05:00,43.4,41.0,29.93,WSW,250,0.0,0.0,91,0.00,,,0.00,VWS V14.01,2013-04-10 23:05:00,
2013-04-10 19:07:00,43.4,41.0,29.93,SW,236,3.0,4.0,91,0.00,,,0.00,VWS V14.01,2013-04-10 23:07:00,
2013-04-10 19:08:00,43.4,41.0,29.92,SW,236,1.0,4.0,91,0.00,,,0.00,VWS V14.01,2013-04-10 23:08:00,
2013-04-10 19:10:00,43.4,41.0,29.92,SW,236,0.0,0.0,91,0.00,,,0.00,VWS V14.01,2013-04-10 23:10:00,
2013-04-10 19:12:00,43.4,41.0,29.92,SW,236,0.0,0.0,91,0.00,,,0.00,VWS V14.01,2013-04-10 23:12:00,
2013-04-10 19:13:00,43.4,41.0,29.92,SW,236,0.0,0.0,91,0.00,,,0.00,VWS V14.01,2013-04-10 23:13:00,
2013-04-10 19:15:00,43.4,41.0,29.91,SW,236,0.0,0.0,91,0.00,,,0.00,VWS V14.01,2013-04-10 23:15:00,
2013-04-10 19:18:00,43.4,41.0,29.92,SW,236,0.0,0.0,91,0.00,,,0.00,VWS V14.01,2013-04-10 23:18:00,
2013-04-10 19:20:00,43.4,41.0,29.92,SW,236,1.0,1.0,91,0.00,,,0.00,VWS V14.01,2013-04-10 23:20:00,
2013-04-10 19:23:00,43.4,41.0,29.92,SW,236,0.0,2.0,91,0.00,,,0.00,VWS V14.01,2013-04-10 23:23:00,
2013-04-10 19:24:00,43.4,41.0,29.92,SW,236,0.0,2.0,91,0.00,,,0.00,VWS V14.01,2013-04-10 23:24:00,
2013-04-10 19:25:00,43.4,41.0,29.92,SW,236,1.0,1.0,91,0.00,,,0.00,VWS V14.01,2013-04-10 23:25:00,
2013-04-10 19:28:00,43.3,41.1,29.93,SW,236,0.0,2.0,92,0.00,,,0.00,VWS V14.01,2013-04-10 23:28:00,
2013-04-10 19:29:00,43.3,41.1,29.93,SW,236,0.0,2.0,92,0.00,,,0.00,VWS V14.01,2013-04-10 23:29:00,
2013-04-10 19:30:00,43.3,41.1,29.93,SW,236,0.0,0.0,92,0.00,,,0.00,VWS V14.01,2013-04-10 23:30:00,
2013-04-10 19:33:00,43.3,41.1,29.92,WSW,237,0.0,2.0,92,0.00,,,0.00,VWS V14.01,2013-04-10 23:33:00,
2013-04-10 19:34:00,43.3,41.1,29.92,WSW,237,1.0,2.0,92,0.00,,,0.00,VWS V14.01,2013-04-10 23:34:00,
2013-04-10 19:35:00,43.3,41.1,29.92,SW,231,3.0,4.0,92,0.00,,,0.00,VWS V14.01,2013-04-10 23:35:00,
2013-04-10 19:36:00,43.3,41.1,29.92,SW,231,1.0,4.0,92,0.00,,,0.00,VWS V14.01,2013-04-10 23:36:00,
2013-04-10 19:38:00,43.2,41.0,29.92,SW,232,2.0,4.0,92,0.00,,,0.00,VWS V14.01,2013-04-10 23:38:00,
2013-04-10 19:39:00,43.2,41.0,29.92,SW,232,0.0,4.0,92,0.00,,,0.00,VWS V14.01,2013-04-10 23:39:00,
2013-04-10 19:40:00,43.2,41.0,29.92,SW,232,1.0,3.0,92,0.00,,,0.00,VWS V14.01,2013-04-10 23:40:00,
2013-04-10 19:41:00,43.2,41.0,29.92,SW,232,0.0,3.0,92,0.00,,,0.00,VWS V14.01,2013-04-10 23:41:00,
2013-04-10 19:43:00,43.2,41.0,29.92,SW,232,2.0,3.0,92,0.00,,,0.00,VWS V14.01,2013-04-10 23:43:00,
2013-04-10 19:44:00,43.2,41.0,29.92,SW,233,3.0,3.0,92,0.00,,,0.00,VWS V14.01,2013-04-10 23:44:00,
2013-04-10 19:45:00,43.2,41.0,29.91,SW,234,0.0,2.0,92,0.00,,,0.00,VWS V14.01,2013-04-10 23:45:00,
2013-04-10 19:46:00,43.2,41.0,29.92,SW,234,0.0,2.0,92,0.00,,,0.00,VWS V14.01,2013-04-10 23:46:00,
2013-04-10 19:49:00,43.1,40.9,29.91,WSW,242,7.0,7.0,92,0.00,,,0.00,VWS V14.01,2013-04-10 23:49:00,
2013-04-10 19:50:00,43.1,40.9,29.91,WSW,240,2.0,2.0,92,0.00,,,0.00,VWS V14.01,2013-04-10 23:50:00,
2013-04-10 19:51:00,43.0,40.8,29.91,WSW,240,1.0,4.0,92,0.00,,,0.00,VWS V14.01,2013-04-10 23:51:00,
2013-04-10 19:54:00,42.9,40.7,29.91,WSW,240,0.0,4.0,92,0.00,,,0.00,VWS V14.01,2013-04-10 23:54:00,
2013-04-10 19:55:00,42.9,40.7,29.91,WSW,240,2.0,4.0,92,0.00,,,0.00,VWS V14.01,2013-04-10 23:55:00,
2013-04-10 19:56:00,42.8,40.6,29.91,WSW,248,3.0,6.0,92,0.00,,,0.00,VWS V14.01,2013-04-10 23:56:00,
2013-04-10 19:59:00,42.8,40.6,29.92,SW,225,0.0,6.0,92,0.00,,,0.00,VWS V14.01,2013-04-10 23:59:00,
2013-04-10 20:00:00,42.8,40.6,29.92,SW,225,2.0,6.0,92,0.00,,,0.00,VWS V14.01,2013-04-11 00:00:00,
2013-04-10 20:01:00,42.8,40.6,29.92,SW,225,0.0,3.0,92,0.00,,,0.00,VWS V14.01,2013-04-11 00:01:00,
2013-04-10 20:02:00,42.7,40.5,29.92,SW,225,0.0,3.0,92,0.00,,,0.00,VWS V14.01,2013-04-11 00:02:00,
2013-04-10 20:04:00,42.8,40.6,29.92,SW,225,0.0,3.0,92,0.00,,,0.00,VWS V14.01,2013-04-11 00:04:00,
2013-04-10 20:05:00,42.8,40.6,29.92,SW,225,0.0,3.0,92,0.00,,,0.00,VWS V14.01,2013-04-11 00:05:00,
2013-04-10 20:06:00,42.8,40.6,29.92,SW,225,0.0,0.0,92,0.00,,,0.00,VWS V14.01,2013-04-11 00:06:00,
2013-04-10 20:07:00,42.8,40.6,29.92,SW,225,0.0,0.0,92,0.00,,,0.00,VWS V14.01,2013-04-11 00:07:00,
2013-04-10 20:09:00,42.8,40.6,29.93,SW,225,0.0,0.0,92,0.00,,,0.00,VWS V14.01,2013-04-11 00:09:00,
2013-04-10 20:10:00,42.8,40.6,29.93,SW,225,0.0,1.0,92,0.00,,,0.00,VWS V14.01,2013-04-11 00:10:00,
2013-04-10 20:12:00,42.8,40.9,29.93,SW,225,2.0,2.0,93,0.00,,,0.00,VWS V14.01,2013-04-11 00:12:00,
2013-04-10 20:15:00,42.8,40.9,29.93,SW,225,0.0,0.0,93,0.00,,,0.00,VWS V14.01,2013-04-11 00:15:00,
2013-04-10 20:17:00,42.8,40.9,29.93,SW,225,1.0,2.0,93,0.00,,,0.00,VWS V14.01,2013-04-11 00:17:00,
2013-04-10 20:18:00,42.8,40.9,29.93,SW,225,0.0,2.0,93,0.00,,,0.00,VWS V14.01,2013-04-11 00:18:00,
2013-04-10 20:20:00,42.9,41.0,29.94,SW,225,0.0,0.0,93,0.00,,,0.00,VWS V14.01,2013-04-11 00:20:00,
2013-04-10 20:22:00,42.9,41.0,29.94,SW,219,0.0,0.0,93,0.00,,,0.00,VWS V14.01,2013-04-11 00:22:00,
2013-04-10 20:23:00,42.9,41.0,29.94,SW,220,0.0,0.0,93,0.00,,,0.00,VWS V14.01,2013-04-11 00:23:00,
2013-04-10 20:25:00,42.9,41.0,29.94,SW,219,0.0,0.0,93,0.00,,,0.00,VWS V14.01,2013-04-11 00:25:00,
2013-04-10 20:28:00,42.9,41.0,29.95,SW,220,0.0,0.0,93,0.00,,,0.00,VWS V14.01,2013-04-11 00:28:00,
2013-04-10 20:29:00,42.9,41.0,29.95,SW,219,0.0,0.0,93,0.00,,,0.00,VWS V14.01,2013-04-11 00:29:00,
2013-04-10 20:30:00,42.9,41.0,29.95,SW,220,0.0,0.0,93,0.00,,,0.00,VWS V14.01,2013-04-11 00:30:00,
2013-04-10 20:33:00,42.9,41.0,29.96,SW,220,2.0,2.0,93,0.00,,,0.00,VWS V14.01,2013-04-11 00:33:00,
2013-04-10 20:34:00,42.9,41.0,29.96,SW,219,2.0,4.0,93,0.00,,,0.00,VWS V14.01,2013-04-11 00:34:00,
2013-04-10 20:35:00,42.8,40.9,29.96,SW,220,0.0,0.0,93,0.00,,,0.00,VWS V14.01,2013-04-11 00:35:00,
2013-04-10 20:38:00,42.7,40.8,29.96,SW,220,0.0,1.0,93,0.00,,,0.00,VWS V14.01,2013-04-11 00:38:00,
2013-04-10 20:39:00,42.7,40.8,29.96,SW,220,0.0,1.0,93,0.00,,,0.00,VWS V14.01,2013-04-11 00:39:00,
2013-04-10 20:40:00,42.6,40.7,29.97,SW,220,0.0,0.0,93,0.00,,,0.00,VWS V14.01,2013-04-11 00:40:00,
2013-04-10 20:43:00,42.5,40.6,29.97,SW,220,0.0,0.0,93,0.00,,,0.00,VWS V14.01,2013-04-11 00:43:00,
2013-04-10 20:44:00,42.5,40.6,29.96,SW,220,0.0,0.0,93,0.00,,,0.00,VWS V14.01,2013-04-11 00:44:00,
2013-04-10 20:45:00,42.5,40.6,29.97,SW,220,0.0,0.0,93,0.00,,,0.00,VWS V14.01,2013-04-11 00:45:00,
2013-04-10 20:48:00,42.4,40.5,29.97,SW,220,0.0,2.0,93,0.00,,,0.00,VWS V14.01,2013-04-11 00:48:00,
2013-04-10 20:49:00,42.4,40.5,29.97,SW,220,0.0,2.0,93,0.00,,,0.00,VWS V14.01,2013-04-11 00:49:00,
2013-04-10 20:50:00,42.4,40.5,29.97,SW,220,0.0,0.0,93,0.00,,,0.00,VWS V14.01,2013-04-11 00:50:00,
2013-04-10 20:53:00,42.3,40.4,29.97,SW,220,0.0,0.0,93,0.00,,,0.00,VWS V14.01,2013-04-11 00:53:00,
2013-04-10 20:55:00,42.3,40.4,29.97,SW,219,0.0,0.0,93,0.00,,,0.00,VWS V14.01,2013-04-11 00:55:00,
2013-04-10 20:56:00,42.3,40.4,29.97,SW,220,0.0,0.0,93,0.00,,,0.00,VWS V14.01,2013-04-11 00:56:00,
2013-04-10 20:59:00,42.3,40.4,29.96,SW,220,0.0,4.0,93,0.00,,,0.00,VWS V14.01,2013-04-11 00:59:00,
2013-04-10 21:00:00,42.3,40.4,29.96,SW,220,0.0,0.0,93,0.00,,,0.00,VWS V14.01,2013-04-11 01:00:00,
2013-04-10 21:01:00,42.3,40.4,29.96,SW,220,2.0,2.0,93,0.00,,,0.00,VWS V14.01,2013-04-11 01:01:00,
2013-04-10 21:04:00,42.3,40.4,29.97,SW,220,0.0,3.0,93,0.00,,,0.00,VWS V14.01,2013-04-11 01:04:00,
2013-04-10 21:05:00,42.4,40.5,29.97,SW,220,2.0,3.0,93,0.00,,,0.00,VWS V14.01,2013-04-11 01:05:00,
2013-04-10 21:06:00,42.4,40.5,29.97,SW,219,0.0,3.0,93,0.00,,,0.00,VWS V14.01,2013-04-11 01:06:00,
2013-04-10 21:07:00,42.4,40.5,29.97,SW,219,0.0,3.0,93,0.00,,,0.00,VWS V14.01,2013-04-11 01:07:00,
2013-04-10 21:09:00,42.4,40.5,29.97,SW,219,0.0,3.0,93,0.00,,,0.00,VWS V14.01,2013-04-11 01:09:00,
2013-04-10 21:10:00,42.3,40.4,29.97,SW,220,2.0,2.0,93,0.00,,,0.00,VWS V14.01,2013-04-11 01:10:00,
2013-04-10 21:12:00,42.3,40.4,29.96,SW,220,0.0,2.0,93,0.00,,,0.00,VWS V14.01,2013-04-11 01:12:00,
2013-04-10 21:14:00,42.3,40.4,29.96,SW,220,0.0,2.0,93,0.00,,,0.00,VWS V14.01,2013-04-11 01:14:00,
2013-04-10 21:15:00,42.3,40.4,29.96,SW,220,3.0,4.0,93,0.00,,,0.00,VWS V14.01,2013-04-11 01:15:00,
2013-04-10 21:17:00,42.3,40.4,29.96,SW,219,2.0,4.0,93,0.00,,,0.00,VWS V14.01,2013-04-11 01:17:00,
2013-04-10 21:19:00,42.2,40.3,29.97,SW,218,2.0,4.0,93,0.00,,,0.00,VWS V14.01,2013-04-11 01:19:00,
2013-04-10 21:20:00,42.3,40.4,29.97,SW,218,0.0,0.0,93,0.00,,,0.00,VWS V14.01,2013-04-11 01:20:00,
2013-04-10 21:22:00,42.3,40.4,29.96,SSW,213,0.0,3.0,93,0.00,,,0.00,VWS V14.01,2013-04-11 01:22:00,
2013-04-10 21:24:00,42.3,40.4,29.97,SSW,213,0.0,3.0,93,0.00,,,0.00,VWS V14.01,2013-04-11 01:24:00,
2013-04-10 21:25:00,42.3,40.4,29.97,SSW,213,1.0,3.0,93,0.00,,,0.00,VWS V14.01,2013-04-11 01:25:00,
2013-04-10 21:27:00,42.3,40.4,29.97,SSW,213,2.0,3.0,93,0.00,,,0.00,VWS V14.01,2013-04-11 01:27:00,
2013-04-10 21:28:00,42.3,40.4,29.96,SSW,213,1.0,3.0,93,0.00,,,0.00,VWS V14.01,2013-04-11 01:28:00,
2013-04-10 21:29:00,42.2,40.3,29.96,SW,215,4.0,4.0,93,0.00,,,0.00,VWS V14.01,2013-04-11 01:29:00,
2013-04-10 21:30:00,42.2,40.3,29.96,SW,215,2.0,3.0,93,0.00,,,0.00,VWS V14.01,2013-04-11 01:30:00,
2013-04-10 21:32:00,42.1,40.2,29.96,SW,215,1.0,4.0,93,0.00,,,0.00,VWS V14.01,2013-04-11 01:32:00,
2013-04-10 21:33:00,42.1,40.2,29.96,SW,216,2.0,4.0,93,0.00,,,0.00,VWS V14.01,2013-04-11 01:33:00,
2013-04-10 21:34:00,42.1,40.2,29.96,SW,216,1.0,4.0,93,0.00,,,0.00,VWS V14.01,2013-04-11 01:34:00,
2013-04-10 21:35:00,42.1,40.2,29.96,SW,216,0.0,2.0,93,0.00,,,0.00,VWS V14.01,2013-04-11 01:35:00,
2013-04-10 21:38:00,42.1,40.2,29.96,SW,215,0.0,2.0,93,0.00,,,0.00,VWS V14.01,2013-04-11 01:38:00,
2013-04-10 21:39:00,42.1,40.2,29.96,SW,216,0.0,2.0,93,0.00,,,0.00,VWS V14.01,2013-04-11 01:39:00,
2013-04-10 21:40:00,42.1,40.2,29.96,SW,215,0.0,1.0,93,0.00,,,0.00,VWS V14.01,2013-04-11 01:40:00,
2013-04-10 21:43:00,42.1,40.2,29.96,SW,216,0.0,1.0,93,0.00,,,0.00,VWS V14.01,2013-04-11 01:43:00,
2013-04-10 21:44:00,42.1,40.2,29.96,SW,216,0.0,1.0,93,0.00,,,0.00,VWS V14.01,2013-04-11 01:44:00,
2013-04-10 21:45:00,42.1,40.2,29.96,SW,215,3.0,3.0,93,0.00,,,0.00,VWS V14.01,2013-04-11 01:45:00,
2013-04-10 21:48:00,42.1,40.2,29.95,SW,219,0.0,4.0,93,0.00,,,0.00,VWS V14.01,2013-04-11 01:48:00,
2013-04-10 21:49:00,42.0,40.1,29.95,SW,219,0.0,4.0,93,0.00,,,0.00,VWS V14.01,2013-04-11 01:49:00,
2013-04-10 21:50:00,42.0,40.1,29.95,SW,219,1.0,3.0,93,0.00,,,0.00,VWS V14.01,2013-04-11 01:50:00,
2013-04-10 21:53:00,42.0,40.1,29.95,SW,219,0.0,3.0,93,0.00,,,0.00,VWS V14.01,2013-04-11 01:53:00,
2013-04-10 21:54:00,42.0,40.1,29.95,SW,219,1.0,3.0,93,0.00,,,0.00,VWS V14.01,2013-04-11 01:54:00,
2013-04-10 21:55:00,42.0,40.4,29.95,SW,219,3.0,4.0,94,0.00,,,0.00,VWS V14.01,2013-04-11 01:55:00,
2013-04-10 21:58:00,42.0,40.4,29.95,SW,219,0.0,4.0,94,0.00,,,0.00,VWS V14.01,2013-04-11 01:58:00,
2013-04-10 21:59:00,42.0,40.4,29.95,SW,219,0.0,4.0,94,0.00,,,0.00,VWS V14.01,2013-04-11 01:59:00,
2013-04-10 22:00:00,42.0,40.4,29.95,SW,219,0.0,0.0,94,0.00,,,0.00,VWS V14.01,2013-04-11 02:00:00,
2013-04-10 22:03:00,42.0,40.4,29.95,SW,219,0.0,3.0,94,0.00,,,0.00,VWS V14.01,2013-04-11 02:03:00,
2013-04-10 22:04:00,42.0,40.4,29.95,SW,219,0.0,3.0,94,0.00,,,0.00,VWS V14.01,2013-04-11 02:04:00,
2013-04-10 22:05:00,42.0,40.1,29.95,SW,219,0.0,2.0,93,0.00,,,0.00,VWS V14.01,2013-04-11 02:05:00,
2013-04-10 22:08:00,42.0,40.4,29.94,SW,219,0.0,3.0,94,0.00,,,0.00,VWS V14.01,2013-04-11 02:08:00,
2013-04-10 22:09:00,42.0,40.1,29.94,SW,219,0.0,3.0,93,0.00,,,0.00,VWS V14.01,2013-04-11 02:09:00,
2013-04-10 22:10:00,42.0,40.4,29.94,SW,218,0.0,3.0,94,0.00,,,0.00,VWS V14.01,2013-04-11 02:10:00,
2013-04-10 22:11:00,42.0,40.4,29.94,SW,219,0.0,0.0,94,0.00,,,0.00,VWS V14.01,2013-04-11 02:11:00,
2013-04-10 22:13:00,42.0,40.4,29.94,SW,219,0.0,1.0,94,0.00,,,0.00,VWS V14.01,2013-04-11 02:13:00,
2013-04-10 22:14:00,42.0,40.1,29.94,South,171,5.0,6.0,93,0.00,,,0.00,VWS V14.01,2013-04-11 02:14:00,
2013-04-10 22:15:00,42.0,40.4,29.94,SW,226,3.0,6.0,94,0.00,,,0.00,VWS V14.01,2013-04-11 02:15:00,
2013-04-10 22:17:00,42.0,40.1,29.94,WSW,240,0.0,5.0,93,0.00,,,0.00,VWS V14.01,2013-04-11 02:17:00,
2013-04-10 22:18:00,41.9,40.0,29.94,WSW,240,0.0,5.0,93,0.00,,,0.00,VWS V14.01,2013-04-11 02:18:00,
2013-04-10 22:19:00,41.9,40.0,29.94,WSW,240,0.0,5.0,93,0.00,,,0.00,VWS V14.01,2013-04-11 02:19:00,
2013-04-10 22:20:00,41.9,40.0,29.94,WSW,240,0.0,5.0,93,0.00,,,0.00,VWS V14.01,2013-04-11 02:20:00,
2013-04-10 22:22:00,41.9,40.3,29.94,WSW,238,0.0,0.0,94,0.00,,,0.00,VWS V14.01,2013-04-11 02:22:00,
2013-04-10 22:24:00,41.9,40.3,29.94,WSW,238,0.0,0.0,94,0.00,,,0.00,VWS V14.01,2013-04-11 02:24:00,
2013-04-10 22:25:00,41.9,40.3,29.94,WSW,238,0.0,0.0,94,0.00,,,0.00,VWS V14.01,2013-04-11 02:25:00,
2013-04-10 22:27:00,41.9,40.3,29.94,WSW,238,0.0,0.0,94,0.00,,,0.00,VWS V14.01,2013-04-11 02:27:00,
2013-04-10 22:29:00,41.9,40.3,29.94,WSW,238,0.0,0.0,94,0.00,,,0.00,VWS V14.01,2013-04-11 02:29:00,
2013-04-10 22:30:00,41.9,40.3,29.94,WSW,238,0.0,0.0,94,0.00,,,0.00,VWS V14.01,2013-04-11 02:30:00,
2013-04-10 22:32:00,41.9,40.3,29.94,WSW,238,0.0,1.0,94,0.00,,,0.00,VWS V14.01,2013-04-11 02:32:00,
2013-04-10 22:34:00,41.9,40.3,29.94,WSW,238,0.0,1.0,94,0.00,,,0.00,VWS V14.01,2013-04-11 02:34:00,
2013-04-10 22:35:00,41.9,40.3,29.94,WSW,238,0.0,1.0,94,0.00,,,0.00,VWS V14.01,2013-04-11 02:35:00,
2013-04-10 22:37:00,41.9,40.3,29.94,WSW,238,1.0,1.0,94,0.00,,,0.00,VWS V14.01,2013-04-11 02:37:00,
2013-04-10 22:39:00,41.9,40.3,29.94,WSW,238,0.0,2.0,94,0.00,,,0.00,VWS V14.01,2013-04-11 02:39:00,
2013-04-10 22:40:00,41.9,40.3,29.95,WSW,238,0.0,2.0,94,0.00,,,0.00,VWS V14.01,2013-04-11 02:40:00,
2013-04-10 22:42:00,41.9,40.3,29.95,WSW,238,0.0,3.0,94,0.00,,,0.00,VWS V14.01,2013-04-11 02:42:00,
2013-04-10 22:44:00,41.8,40.2,29.95,WSW,238,0.0,3.0,94,0.00,,,0.00,VWS V14.01,2013-04-11 02:44:00,
2013-04-10 22:45:00,41.8,40.2,29.95,WSW,238,0.0,1.0,94,0.00,,,0.00,VWS V14.01,2013-04-11 02:45:00,
2013-04-10 22:47:00,41.8,40.2,29.96,WSW,238,0.0,1.0,94,0.00,,,0.00,VWS V14.01,2013-04-11 02:47:00,
2013-04-10 22:49:00,41.8,40.2,29.95,WSW,239,2.0,4.0,94,0.00,,,0.00,VWS V14.01,2013-04-11 02:49:00,
2013-04-10 22:50:00,41.8,40.2,29.95,WSW,238,3.0,3.0,94,0.00,,,0.00,VWS V14.01,2013-04-11 02:50:00,
2013-04-10 22:52:00,41.7,40.1,29.96,SW,236,0.0,4.0,94,0.00,,,0.00,VWS V14.01,2013-04-11 02:52:00,
2013-04-10 22:54:00,41.7,40.1,29.96,SW,236,2.0,4.0,94,0.00,,,0.00,VWS V14.01,2013-04-11 02:54:00,
2013-04-10 22:55:00,41.7,40.1,29.96,SW,236,2.0,3.0,94,0.00,,,0.00,VWS V14.01,2013-04-11 02:55:00,
2013-04-10 22:57:00,41.7,40.1,29.96,SW,236,3.0,3.0,94,0.00,,,0.00,VWS V14.01,2013-04-11 02:57:00,
2013-04-10 22:59:00,41.7,40.1,29.95,SW,235,0.0,4.0,94,0.00,,,0.00,VWS V14.01,2013-04-11 02:59:00,
2013-04-10 23:00:00,41.7,40.1,29.95,SW,234,4.0,4.0,94,0.00,,,0.00,VWS V14.01,2013-04-11 03:00:00,
2013-04-10 23:03:00,41.7,40.1,29.95,WSW,238,0.0,4.0,94,0.00,,,0.00,VWS V14.01,2013-04-11 03:03:00,
2013-04-10 23:04:00,41.7,40.1,29.95,SW,227,2.0,4.0,94,0.00,,,0.00,VWS V14.01,2013-04-11 03:04:00,
2013-04-10 23:05:00,41.6,40.0,29.95,SW,226,3.0,3.0,94,0.00,,,0.00,VWS V14.01,2013-04-11 03:05:00,
2013-04-10 23:08:00,41.6,40.0,29.95,SW,223,0.0,4.0,94,0.00,,,0.00,VWS V14.01,2013-04-11 03:08:00,
2013-04-10 23:09:00,41.6,40.0,29.95,SW,227,3.0,5.0,94,0.00,,,0.00,VWS V14.01,2013-04-11 03:09:00,
2013-04-10 23:10:00,41.6,40.0,29.95,SW,226,0.0,4.0,94,0.00,,,0.00,VWS V14.01,2013-04-11 03:10:00,
2013-04-10 23:13:00,41.6,40.0,29.94,SW,227,0.0,4.0,94,0.00,,,0.00,VWS V14.01,2013-04-11 03:13:00,
2013-04-10 23:14:00,41.5,39.9,29.94,SW,228,3.0,3.0,94,0.00,,,0.00,VWS V14.01,2013-04-11 03:14:00,
2013-04-10 23:15:00,41.5,39.9,29.94,SW,227,0.0,3.0,94,0.00,,,0.00,VWS V14.01,2013-04-11 03:15:00,
2013-04-10 23:18:00,41.5,39.9,29.94,SW,228,0.0,3.0,94,0.00,,,0.00,VWS V14.01,2013-04-11 03:18:00,
2013-04-10 23:20:00,41.5,39.9,29.94,SW,222,3.0,4.0,94,0.00,,,0.00,VWS V14.01,2013-04-11 03:20:00,
2013-04-10 23:21:00,41.5,39.9,29.94,South,187,0.0,4.0,94,0.00,,,0.00,VWS V14.01,2013-04-11 03:21:00,
2013-04-10 23:23:00,41.5,39.9,29.94,South,187,0.0,4.0,94,0.00,,,0.00,VWS V14.01,2013-04-11 03:23:00,
2013-04-10 23:25:00,41.5,39.9,29.94,South,186,0.0,0.0,94,0.00,,,0.00,VWS V14.01,2013-04-11 03:25:00,
2013-04-10 23:26:00,41.5,39.9,29.94,South,186,0.0,0.0,94,0.00,,,0.00,VWS V14.01,2013-04-11 03:26:00,
2013-04-10 23:28:00,41.4,39.8,29.94,SW,215,2.0,3.0,94,0.00,,,0.00,VWS V14.01,2013-04-11 03:28:00,
2013-04-10 23:30:00,41.4,39.8,29.94,SW,216,1.0,2.0,94,0.00,,,0.00,VWS V14.01,2013-04-11 03:30:00,
2013-04-10 23:32:00,41.4,39.8,29.94,SW,216,0.0,2.0,94,0.00,,,0.00,VWS V14.01,2013-04-11 03:32:00,
2013-04-10 23:33:00,41.4,39.8,29.94,SW,216,0.0,2.0,94,0.00,,,0.00,VWS V14.01,2013-04-11 03:33:00,
2013-04-10 23:35:00,41.4,39.8,29.94,SSW,195,0.0,0.0,94,0.00,,,0.00,VWS V14.01,2013-04-11 03:35:00,
2013-04-10 23:37:00,41.3,39.7,29.94,SSW,195,0.0,0.0,94,0.00,,,0.00,VWS V14.01,2013-04-11 03:37:00,
2013-04-10 23:38:00,41.3,39.7,29.94,SSW,195,0.0,0.0,94,0.00,,,0.00,VWS V14.01,2013-04-11 03:38:00,
2013-04-10 23:40:00,41.3,39.7,29.94,SSW,195,0.0,0.0,94,0.00,,,0.00,VWS V14.01,2013-04-11 03:40:00,
2013-04-10 23:42:00,41.3,39.7,29.94,SSW,195,0.0,0.0,94,0.00,,,0.00,VWS V14.01,2013-04-11 03:42:00,
2013-04-10 23:43:00,41.2,39.6,29.94,SSW,195,0.0,0.0,94,0.00,,,0.00,VWS V14.01,2013-04-11 03:43:00,
2013-04-10 23:45:00,41.2,39.6,29.94,SSW,195,0.0,0.0,94,0.00,,,0.00,VWS V14.01,2013-04-11 03:45:00,
2013-04-10 23:47:00,41.2,39.6,29.94,SSW,195,0.0,0.0,94,0.00,,,0.00,VWS V14.01,2013-04-11 03:47:00,
2013-04-10 23:48:00,41.1,39.5,29.94,SSW,195,0.0,0.0,94,0.00,,,0.00,VWS V14.01,2013-04-11 03:48:00,
2013-04-10 23:50:00,41.1,39.5,29.94,SSW,195,0.0,0.0,94,0.00,,,0.00,VWS V14.01,2013-04-11 03:50:00,
2013-04-10 23:52:00,41.1,39.5,29.94,SSW,195,0.0,3.0,94,0.00,,,0.00,VWS V14.01,2013-04-11 03:52:00,
2013-04-10 23:53:00,41.1,39.5,29.94,SSW,195,0.0,3.0,94,0.00,,,0.00,VWS V14.01,2013-04-11 03:53:00,
2013-04-10 23:55:00,41.1,39.5,29.94,SSW,200,1.0,3.0,94,0.00,,,0.00,VWS V14.01,2013-04-11 03:55:00,
2013-04-10 23:57:00,41.0,39.4,29.94,SSW,200,0.0,3.0,94,0.00,,,0.00,VWS V14.01,2013-04-11 03:57:00,
2013-04-10 23:58:00,41.0,39.4,29.94,SSW,199,0.0,3.0,94,0.00,,,0.00,VWS V14.01,2013-04-11 03:58:00,